W4HSV Weather Reports


time (UTC)temp
F
wind
direction
speed
knots
gust
knots
rain 1hr
in
rain 24hr
in
rain mn
in
humidity
%
barometer
mb
20260509205414 77 282 3.5 8.7 0.00 0.00 0.00 61 1010.2
20260509205322 77 313 3.5 8.7 0.00 0.00 0.00 61 1010.2
20260509205229 77 302 3.5 8.7 0.00 0.00 0.00 61 1010.2
20260509205116 77 286 4.3 8.7 0.00 0.00 0.00 61 1010.2
20260509205051 77 280 5.2 8.7 0.00 0.00 0.00 61 1010.2
20260509204824 77 293 4.3 8.7 0.00 0.00 0.00 62 1010.3
20260509204712 77 289 2.6 6.1 0.00 0.00 0.00 62 1010.3
20260509204618 77 240 1.7 6.1 0.00 0.00 0.00 62 1010.3
20260509204530 77 254 2.6 6.1 0.00 0.00 0.00 62 1010.3
20260509204417 77 288 2.6 7.0 0.00 0.00 0.00 62 1010.3
20260509204324 77 319 2.6 7.0 0.00 0.00 0.00 62 1010.3
20260509204213 77 269 2.6 7.0 0.00 0.00 0.00 62 1010.4
20260509204140 77 263 2.6 7.0 0.00 0.00 0.00 62 1010.4
20260509204027 77 290 2.6 7.0 0.00 0.00 0.00 62 1010.4
20260509203920 77 284 1.7 7.0 0.00 0.00 0.00 62 1010.4
20260509203828 77 243 1.7 7.0 0.00 0.00 0.00 62 1010.4
20260509203736 77 321 2.6 7.0 0.00 0.00 0.00 62 1010.4
20260509203623 76 290 3.5 7.0 0.00 0.00 0.00 62 1010.4
20260509203554 76 323 4.3 7.0 0.00 0.00 0.00 63 1010.4
20260509203311 76 264 3.5 7.0 0.00 0.00 0.00 63 1010.4
20260509203219 76 288 1.7 7.0 0.00 0.00 0.00 63 1010.4
20260509203126 76 242 1.7 7.0 0.00 0.00 0.00 62 1010.4
20260509203013 76 360 1.7 7.0 0.00 0.00 0.00 64 1010.4
20260509202922 76 5 2.6 7.0 0.00 0.00 0.00 63 1010.4
20260509202812 76 253 2.6 7.0 0.00 0.00 0.00 63 1010.4
20260509202719 76 263 2.6 7.0 0.00 0.00 0.00 64 1010.4
20260509202625 76 239 2.6 4.3 0.00 0.00 0.00 63 1010.4
20260509202512 76 285 2.6 7.0 0.00 0.00 0.00 63 1010.5
20260509202418 76 277 2.6 7.0 0.00 0.00 0.00 64 1010.5
20260509202327 76 298 2.6 7.0 0.00 0.00 0.00 64 1010.5
20260509202218 76 291 2.6 7.0 0.00 0.00 0.00 65 1010.5
20260509202125 76 306 2.6 7.0 0.00 0.00 0.00 63 1010.5
20260509202056 76 295 2.6 7.0 0.00 0.00 0.00 63 1010.5
20260509201831 76 316 3.5 7.0 0.00 0.00 0.00 63 1010.7
20260509201721 76 305 2.6 7.0 0.00 0.00 0.00 65 1010.5
20260509201629 76 215 1.7 7.0 0.00 0.00 0.00 64 1010.6
20260509201517 76 220 0.9 7.0 0.00 0.00 0.00 65 1010.6
20260509201425 76 238 1.7 7.0 0.00 0.00 0.00 65 1010.6
20260509201333 76 270 1.7 7.0 0.00 0.00 0.00 65 1010.5
20260509201220 76 261 1.7 7.8 0.00 0.00 0.00 65 1010.5
20260509201131 76 310 1.7 9.6 0.00 0.00 0.00 65 1010.5
20260509201018 76 30 3.5 9.6 0.00 0.00 0.00 65 1010.6
20260509200925 76 253 4.3 9.6 0.00 0.00 0.00 64 1010.6
20260509200852 76 268 3.5 9.6 0.00 0.00 0.00 64 1010.5
20260509200719 76 254 4.3 9.6 0.00 0.00 0.00 64 1010.6
20260509200626 76 272 5.2 9.6 0.00 0.00 0.00 64 1010.6
20260509200601 76 303 6.1 9.6 0.00 0.00 0.00 64 1010.5
20260509200314 76 294 5.2 9.6 0.00 0.00 0.00 64 1010.5
20260509200220 76 296 5.2 9.6 0.00 0.00 0.00 63 1010.5
20260509200127 76 301 4.3 8.7 0.00 0.00 0.00 63 1010.5
20260509200020 76 299 5.2 8.7 0.00 0.00 0.00 63 1010.5
20260509195927 76 304 5.2 8.7 0.00 0.00 0.00 64 1010.5
20260509195815 76 265 5.2 8.7 0.00 0.00 0.00 64 1010.5
20260509195742 76 274 4.3 7.8 0.00 0.00 0.00 64 1010.6
20260509195629 76 281 5.2 7.8 0.00 0.00 0.00 64 1010.6
20260509195517 76 291 5.2 7.8 0.00 0.00 0.00 64 1010.5
20260509195430 76 281 4.3 7.8 0.00 0.00 0.00 64 1010.5
20260509195316 76 294 3.5 7.8 0.00 0.00 0.00 64 1010.5
20260509195223 76 311 4.3 7.8 0.00 0.00 0.00 64 1010.5
20260509195131 76 274 4.3 7.8 0.00 0.00 0.00 64 1010.6
20260509195101 76 279 4.3 9.6 0.00 0.00 0.00 64 1010.6
20260509194819 76 288 3.5 9.6 0.00 0.00 0.00 63 1010.6
20260509194726 76 302 3.5 9.6 0.00 0.00 0.00 63 1010.6
20260509194652 76 290 3.5 9.6 0.00 0.00 0.00 63 1010.5
20260509194540 76 267 5.2 9.6 0.00 0.00 0.00 63 1010.5
20260509194426 76 273 6.1 9.6 0.00 0.00 0.00 63 1010.5
20260509194314 76 281 6.1 9.6 0.00 0.00 0.00 63 1010.4
20260509194227 76 273 6.1 9.6 0.00 0.00 0.00 63 1010.4
20260509194115 76 269 5.2 8.7 0.00 0.00 0.00 64 1010.5
20260509194021 76 330 4.3 8.7 0.00 0.00 0.00 64 1010.5
20260509193929 76 287 4.3 7.8 0.00 0.00 0.00 65 1010.5
20260509193817 76 313 3.5 7.8 0.00 0.00 0.00 65 1010.6
20260509193745 76 326 3.5 7.8 0.00 0.00 0.00 64 1010.6
20260509193614 76 290 3.5 6.1 0.00 0.00 0.00 66 1010.7
20260509193546 76 249 3.5 5.2 0.00 0.00 0.00 65 1010.7
20260509193339 76 277 2.6 5.2 0.00 0.00 0.00 65 1010.4
20260509193225 76 296 1.7 7.0 0.00 0.00 0.00 65 1010.4
20260509193114 76 275 2.6 7.0 0.00 0.00 0.00 65 1010.4
20260509193041 76 283 2.6 7.8 0.00 0.00 0.00 65 1010.4
20260509192948 76 273 2.6 7.8 0.00 0.00 0.00 64 1010.4
20260509192814 76 5 3.5 7.8 0.00 0.00 0.00 64 1010.4
20260509192722 76 319 3.5 7.8 0.00 0.00 0.00 64 1010.4
20260509192629 76 277 2.6 7.8 0.00 0.00 0.00 65 1010.6
20260509192516 76 317 3.5 7.8 0.00 0.00 0.00 64 1010.6
20260509192427 76 348 4.3 7.8 0.00 0.00 0.00 64 1010.6
20260509192314 76 297 4.3 7.8 0.00 0.00 0.00 65 1010.5
20260509192223 76 237 3.5 7.8 0.00 0.00 0.00 65 1010.5
20260509192131 76 224 2.6 7.8 0.00 0.00 0.00 67 1010.6
20260509192105 76 194 1.7 7.8 0.00 0.00 0.00 64 1010.6
20260509191819 76 360 1.7 9.6 0.00 0.00 0.00 63 1010.8
20260509191727 76 34 2.6 9.6 0.00 0.00 0.00 63 1010.8
20260509191614 76 181 4.3 9.6 0.00 0.00 0.00 64 1010.9
20260509191523 76 219 4.3 9.6 0.00 0.00 0.00 64 1010.9
20260509191450 76 215 2.6 9.6 0.00 0.00 0.00 64 1010.8
20260509191322 76 313 3.5 9.6 0.00 0.00 0.00 65 1010.8
20260509191229 76 292 3.5 9.6 0.00 0.00 0.00 64 1010.9
20260509191117 76 244 4.3 9.6 0.00 0.00 0.00 65 1010.9
20260509191046 76 258 3.5 9.6 0.00 0.00 0.00 65 1010.9
20260509190952 76 262 4.3 9.6 0.00 0.00 0.00 65 1010.9
20260509190819 76 248 4.3 8.7 0.00 0.00 0.00 65 1010.8
20260509190730 76 239 5.2 8.7 0.00 0.00 0.00 66 1010.8
20260509190617 76 241 6.1 8.7 0.00 0.00 0.00 66 1010.9
20260509190547 76 302 6.1 8.7 0.00 0.00 0.00 66 1010.9
20260509190340 76 329 5.2 8.7 0.00 0.00 0.00 66 1010.7
20260509190246 75 329 4.3 7.8 0.00 0.00 0.00 66 1010.7
20260509190117 75 264 4.3 7.8 0.00 0.00 0.00 66 1010.8
20260509190024 75 343 4.3 7.8 0.00 0.00 0.00 66 1010.8
20260509185932 75 309 3.5 7.0 0.00 0.00 0.00 67 1010.8
20260509185819 75 277 1.7 7.8 0.00 0.00 0.00 67 1010.9
20260509185727 75 167 0.9 7.8 0.00 0.00 0.00 67 1010.9
20260509185634 75 49 1.7 7.8 0.00 0.00 0.00 67 1010.8
20260509185525 75 286 1.7 7.8 0.00 0.00 0.00 67 1010.8
20260509185452 75 270 1.7 7.8 0.00 0.00 0.00 67 1010.8
20260509185320 75 336 2.6 7.8 0.00 0.00 0.00 67 1010.9
20260509185227 75 287 3.5 7.8 0.00 0.00 0.00 66 1010.9
20260509185136 75 252 3.5 7.8 0.00 0.00 0.00 67 1010.9
20260509185049 75 260 3.5 9.6 0.00 0.00 0.00 67 1010.9
20260509184821 75 306 1.7 9.6 0.00 0.00 0.00 67 1011.0
20260509184728 75 218 1.7 9.6 0.00 0.00 0.00 67 1010.9
20260509184615 75 220 1.7 9.6 0.00 0.00 0.00 68 1011.0
20260509184523 75 243 3.5 9.6 0.00 0.00 0.00 67 1011.0
20260509184431 75 291 4.3 9.6 0.00 0.00 0.00 66 1011.0
20260509184342 75 293 4.3 9.6 0.00 0.00 0.00 67 1011.1
20260509184249 75 293 4.3 9.6 0.00 0.00 0.00 68 1011.1
20260509184115 75 259 3.5 7.8 0.00 0.00 0.00 68 1011.1
20260509184022 75 248 3.5 7.8 0.00 0.00 0.00 67 1011.1
20260509183929 74 253 3.5 7.8 0.00 0.00 0.00 67 1011.1
20260509183816 74 248 3.5 7.8 0.00 0.00 0.00 67 1011.1
20260509183728 74 281 3.5 7.8 0.00 0.00 0.00 68 1011.1
20260509183654 74 330 3.5 7.8 0.00 0.00 0.00 69 1011.1
20260509183604 74 284 4.3 7.8 0.00 0.00 0.00 69 1011.2
20260509183317 74 288 5.2 7.8 0.00 0.00 0.00 68 1011.2
20260509183224 74 345 4.3 7.8 0.00 0.00 0.00 69 1011.2
20260509183115 74 246 3.5 7.8 0.00 0.00 0.00 70 1011.1
20260509183022 74 206 2.6 7.0 0.00 0.00 0.00 68 1011.1
20260509182930 74 228 2.6 7.0 0.00 0.00 0.00 67 1011.2
20260509182818 74 202 2.6 7.0 0.00 0.00 0.00 67 1011.3
20260509182747 74 197 3.5 7.8 0.00 0.00 0.00 67 1011.3
20260509182633 74 238 2.6 7.8 0.00 0.00 0.00 67 1011.3
20260509182539 74 275 1.7 7.8 0.00 0.00 0.00 67 1011.3
20260509182430 74 276 2.6 7.8 0.00 0.00 0.00 67 1011.3
20260509182318 74 347 2.6 7.8 0.00 0.00 0.00 67 1011.4
20260509182226 74 215 3.5 7.8 0.00 0.00 0.00 67 1011.4
20260509182113 74 246 4.3 7.8 0.00 0.00 0.00 67 1011.3
20260509182047 74 288 4.3 7.8 0.00 0.00 0.00 67 1011.3
20260509181822 74 339 3.5 7.8 0.00 0.00 0.00 68 1011.3
20260509181728 74 279 3.5 9.6 0.00 0.00 0.00 68 1011.4
20260509181617 74 318 2.6 9.6 0.00 0.00 0.00 68 1011.3
20260509181525 74 242 2.6 9.6 0.00 0.00 0.00 68 1011.3
20260509181417 74 319 1.7 9.6 0.00 0.00 0.00 69 1011.3
20260509181325 74 302 1.7 9.6 0.00 0.00 0.00 69 1011.3
20260509181213 74 319 1.7 9.6 0.00 0.00 0.00 69 1011.2
20260509181120 73 319 2.6 9.6 0.00 0.00 0.00 70 1011.3
20260509181027 73 329 3.5 9.6 0.00 0.00 0.00 69 1011.3
20260509180913 73 342 5.2 9.6 0.00 0.00 0.00 68 1011.2
20260509180845 73 287 6.1 9.6 0.00 0.00 0.00 68 1011.2
20260509180752 73 282 4.3 9.6 0.00 0.00 0.00 68 1011.3
20260509180618 73 330 2.6 8.7 0.00 0.00 0.00 68 1011.3
20260509180548 73 277 1.7 8.7 0.00 0.00 0.00 69 1011.3
20260509180322 73 213 2.6 8.7 0.00 0.00 0.00 68 1011.2
20260509180234 73 200 3.5 8.7 0.00 0.00 0.00 69 1011.1
20260509180120 73 260 4.3 8.7 0.00 0.00 0.00 69 1011.1
20260509180027 73 276 4.3 8.7 0.00 0.00 0.00 70 1011.1
20260509175934 73 245 2.6 8.7 0.00 0.00 0.00 69 1011.1
20260509175821 73 267 1.7 7.8 0.00 0.00 0.00 69 1011.1
20260509175727 73 287 2.6 7.8 0.00 0.00 0.00 69 1011.1
20260509175634 73 308 3.5 7.8 0.00 0.00 0.00 69 1011.2
20260509175524 73 331 4.3 7.8 0.00 0.00 0.00 68 1011.2
20260509175452 73 306 4.3 7.8 0.00 0.00 0.00 69 1011.1
20260509175338 72 290 4.3 7.8 0.00 0.00 0.00 69 1011.1
20260509175226 72 307 3.5 7.0 0.00 0.00 0.00 70 1011.1
20260509175132 72 262 1.7 7.0 0.00 0.00 0.00 70 1011.1
20260509175105 72 277 1.7 7.8 0.00 0.00 0.00 70 1011.1
20260509174818 72 275 2.6 7.8 0.00 0.00 0.00 70 1011.1
20260509174726 72 205 2.6 7.8 0.00 0.00 0.00 69 1011.1
20260509174634 72 192 2.6 7.8 0.00 0.00 0.00 70 1011.2
20260509174520 72 252 2.6 7.8 0.00 0.00 0.00 68 1011.2
20260509174428 72 192 3.5 8.7 0.00 0.00 0.00 68 1011.2
20260509174319 72 227 4.3 8.7 0.00 0.00 0.00 68 1011.2
20260509174226 72 251 4.3 8.7 0.00 0.00 0.00 69 1011.2
20260509174113 72 253 3.5 8.7 0.00 0.00 0.00 69 1011.1
20260509174021 72 272 3.5 8.7 0.00 0.00 0.00 70 1011.1
20260509173928 72 232 3.5 8.7 0.00 0.00 0.00 69 1011.1
20260509173819 72 334 4.3 8.7 0.00 0.00 0.00 69 1011.1
20260509173728 72 323 5.2 8.7 0.00 0.00 0.00 69 1011.1
20260509173635 72 298 4.3 8.7 0.00 0.00 0.00 69 1010.9
20260509173546 72 308 3.5 7.8 0.00 0.00 0.00 70 1010.9
20260509173320 72 275 2.6 6.1 0.00 0.00 0.00 71 1010.9
20260509173212 72 292 1.7 5.2 0.00 0.00 0.00 71 1010.9
20260509173118 72 273 1.7 7.0 0.00 0.00 0.00 71 1010.9
20260509173026 72 202 1.7 7.0 0.00 0.00 0.00 70 1010.9
20260509172934 72 259 0.9 7.8 0.00 0.00 0.00 71 1011.0
20260509172821 72 296 0.9 7.8 0.00 0.00 0.00 71 1010.9
20260509172748 72 163 1.7 7.8 0.00 0.00 0.00 70 1010.9
20260509172618 72 263 1.7 7.8 0.00 0.00 0.00 71 1011.0
20260509172525 71 302 2.6 7.8 0.00 0.00 0.00 71 1011.0
20260509172414 71 161 4.3 7.8 0.00 0.00 0.00 71 1011.1
20260509172320 71 173 4.3 7.8 0.00 0.00 0.00 70 1011.1
20260509172247 71 187 4.3 7.8 0.00 0.00 0.00 70 1011.1
20260509172113 71 196 2.6 7.0 0.00 0.00 0.00 71 1011.2
20260509172048 71 173 3.5 7.0 0.00 0.00 0.00 72 1011.2
20260509171822 71 186 3.5 7.0 0.00 0.00 0.00 72 1011.3
20260509171748 71 274 3.5 7.0 0.00 0.00 0.00 71 1011.3
20260509171614 71 248 3.5 8.7 0.00 0.00 0.00 72 1011.3
20260509171521 71 217 2.6 8.7 0.00 0.00 0.00 72 1011.3
20260509171432 71 169 3.5 8.7 0.00 0.00 0.00 72 1011.3
20260509171316 71 192 4.3 8.7 0.00 0.00 0.00 73 1011.3
20260509171223 71 304 4.3 8.7 0.00 0.00 0.00 73 1011.3
20260509171131 70 260 4.3 10.4 0.00 0.00 0.00 73 1011.4
20260509171019 70 240 5.2 10.4 0.00 0.00 0.00 74 1011.3
20260509170926 70 275 5.2 10.4 0.00 0.00 0.00 74 1011.3
20260509170818 70 241 4.3 10.4 0.00 0.00 0.00 74 1011.4
20260509170726 70 217 3.5 10.4 0.00 0.00 0.00 75 1011.4
20260509170633 70 301 4.3 10.4 0.00 0.00 0.00 76 1011.3
20260509170604 70 242 5.2 10.4 0.00 0.00 0.00 75 1011.3
20260509170341 70 228 5.2 10.4 0.00 0.00 0.00 74 1011.5
20260509170246 70 204 4.3 9.6 0.00 0.00 0.00 74 1011.5
20260509170112 70 170 4.3 9.6 0.00 0.00 0.00 74 1011.5
20260509170020 70 180 4.3 9.6 0.00 0.00 0.00 74 1011.6
20260509165928 70 187 5.2 9.6 0.00 0.00 0.00 74 1011.6
20260509165816 70 242 6.1 9.6 0.00 0.00 0.00 74 1011.6
20260509165729 70 202 5.2 9.6 0.00 0.00 0.00 74 1011.6
20260509165615 70 228 3.5 10.4 0.00 0.00 0.00 74 1011.6
20260509165524 70 199 2.6 10.4 0.00 0.00 0.00 74 1011.6
20260509165451 70 224 2.6 10.4 0.00 0.00 0.00 76 1011.6
20260509165318 69 178 4.3 10.4 0.00 0.00 0.00 76 1011.7
20260509165246 69 183 4.3 10.4 0.00 0.00 0.00 75 1011.7
20260509165132 69 183 5.2 10.4 0.00 0.00 0.00 74 1011.7
20260509165046 69 160 5.2 10.4 0.00 0.00 0.00 74 1011.7
20260509164840 69 164 6.1 10.4 0.00 0.00 0.00 75 1011.8
20260509164727 69 180 6.1 10.4 0.00 0.00 0.00 75 1011.8
20260509164615 69 175 5.2 10.4 0.00 0.00 0.00 76 1011.7
20260509164522 69 205 3.5 10.4 0.00 0.00 0.00 76 1011.7
20260509164412 69 180 4.3 10.4 0.00 0.00 0.00 75 1011.7
20260509164320 69 169 4.3 10.4 0.00 0.00 0.00 75 1011.7
20260509164227 69 142 6.1 10.4 0.00 0.00 0.00 75 1011.7
20260509164116 69 212 5.2 10.4 0.00 0.00 0.00 75 1011.8
20260509164023 69 184 5.2 9.6 0.00 0.00 0.00 75 1011.8
20260509163915 69 183 5.2 9.6 0.00 0.00 0.00 75 1011.8
20260509163823 69 189 4.3 7.8 0.00 0.00 0.00 76 1011.8
20260509163730 69 217 3.5 7.8 0.00 0.00 0.00 75 1011.8
20260509163617 69 205 3.5 7.0 0.00 0.00 0.00 77 1011.8
20260509163552 69 148 3.5 7.0 0.00 0.00 0.00 77 1011.8
20260509163346 69 176 3.5 8.7 0.00 0.00 0.00 77 1011.8
20260509163211 68 240 2.6 9.6 0.00 0.00 0.00 77 1011.8
20260509163119 68 288 2.6 9.6 0.00 0.00 0.00 77 1011.8
20260509163048 68 283 2.6 9.6 0.00 0.00 0.00 77 1011.8
20260509162915 68 186 1.7 9.6 0.00 0.00 0.00 77 1011.8
20260509162843 68 304 1.7 9.6 0.00 0.00 0.00 76 1011.8
20260509162712 68 232 2.6 9.6 0.00 0.00 0.00 77 1011.9
20260509162641 68 192 4.3 9.6 0.00 0.00 0.00 77 1011.7
20260509162548 68 200 4.3 9.6 0.00 0.00 0.00 78 1011.7
20260509162415 68 167 5.2 9.6 0.00 0.00 0.00 78 1011.7
20260509162343 68 232 5.2 10.4 0.00 0.00 0.00 78 1011.7
20260509162230 68 165 4.3 7.8 0.00 0.00 0.00 78 1011.8
20260509162117 68 180 4.3 7.8 0.00 0.00 0.00 78 1011.8
20260509162050 68 192 4.3 7.8 0.00 0.00 0.00 78 1011.8
20260509161824 67 169 5.2 7.8 0.00 0.00 0.00 78 1011.7
20260509161751 67 226 5.2 7.8 0.00 0.00 0.00 78 1011.7
20260509161618 67 197 3.5 8.7 0.00 0.00 0.00 78 1011.7
20260509161525 67 205 2.6 8.7 0.00 0.00 0.00 78 1011.7
20260509161437 67 176 2.6 8.7 0.00 0.00 0.00 78 1011.7
20260509161323 67 189 2.6 8.7 0.00 0.00 0.00 79 1011.7
20260509161230 67 199 2.6 8.7 0.00 0.00 0.00 80 1011.8
20260509161119 67 225 2.6 8.7 0.00 0.00 0.00 80 1011.7
20260509161026 67 236 2.6 8.7 0.00 0.00 0.00 80 1011.7
20260509160917 66 261 3.5 8.7 0.00 0.00 0.00 80 1011.8
20260509160845 66 170 4.3 8.7 0.00 0.00 0.00 80 1011.8
20260509160731 66 160 4.3 8.7 0.00 0.00 0.00 80 1011.8
20260509160640 66 167 3.5 8.7 0.00 0.00 0.00 81 1011.8
20260509160610 66 169 3.5 7.0 0.00 0.00 0.00 81 1011.7
20260509160343 66 198 3.5 7.0 0.00 0.00 0.00 81 1011.8
20260509160213 66 144 4.3 7.8 0.00 0.00 0.00 81 1011.8
20260509160142 66 194 5.2 7.8 0.00 0.00 0.00 81 1011.8
20260509160028 66 214 4.3 7.8 0.00 0.00 0.00 81 1011.8
20260509155915 65 146 3.5 7.8 0.00 0.00 0.00 81 1011.8
20260509155823 65 175 3.5 7.8 0.00 0.00 0.00 81 1011.8
20260509155730 65 193 3.5 7.8 0.00 0.00 0.00 80 1011.8
20260509155622 65 168 5.2 7.8 0.00 0.00 0.00 80 1011.8
20260509155529 65 214 5.2 7.8 0.00 0.00 0.00 80 1011.7
20260509155417 65 200 4.3 7.8 0.00 0.00 0.00 80 1011.8
20260509155325 65 193 3.5 7.8 0.00 0.00 0.00 80 1011.8
20260509155213 65 198 4.3 7.8 0.00 0.00 0.00 81 1011.6
20260509155125 65 203 4.3 6.1 0.00 0.00 0.00 81 1011.6
20260509155056 65 209 3.5 6.1 0.00 0.00 0.00 80 1011.7
20260509154829 65 223 3.5 7.8 0.00 0.00 0.00 81 1011.6
20260509154715 65 234 2.6 7.8 0.00 0.00 0.00 81 1011.7
20260509154624 65 200 1.7 7.8 0.00 0.00 0.00 81 1011.7
20260509154516 65 213 1.7 7.8 0.00 0.00 0.00 82 1011.7
20260509154423 65 235 1.7 7.8 0.00 0.00 0.00 82 1011.7
20260509154351 65 246 1.7 7.8 0.00 0.00 0.00 82 1011.7
20260509154217 65 187 3.5 7.8 0.00 0.00 0.00 82 1011.7
20260509154124 65 219 4.3 7.8 0.00 0.00 0.00 81 1011.7
20260509154015 65 213 3.5 7.8 0.00 0.00 0.00 81 1011.8
20260509153943 65 166 1.7 7.0 0.00 0.00 0.00 81 1011.8
20260509153829 65 234 2.6 7.0 0.00 0.00 0.00 82 1011.8
20260509153717 65 214 2.6 7.0 0.00 0.00 0.00 82 1011.8
20260509153623 65 193 3.5 7.0 0.00 0.00 0.00 82 1011.8
20260509153557 65 206 3.5 7.0 0.00 0.00 0.00 82 1011.7
20260509153351 65 244 4.3 7.0 0.00 0.00 0.00 81 1011.7
20260509153217 65 219 5.2 7.0 0.00 0.00 0.00 81 1011.8
20260509153124 65 205 5.2 7.0 0.00 0.00 0.00 81 1011.8
20260509153052 65 206 5.2 7.0 0.00 0.00 0.00 81 1011.9
20260509152918 65 221 3.5 7.0 0.00 0.00 0.00 82 1011.8
20260509152845 65 168 3.5 7.0 0.00 0.00 0.00 81 1011.8
20260509152715 65 160 3.5 6.1 0.00 0.00 0.00 82 1011.9
20260509152643 65 171 2.6 6.1 0.00 0.00 0.00 82 1011.9
20260509152530 64 289 3.5 6.1 0.00 0.00 0.00 83 1011.9
20260509152418 64 188 3.5 6.1 0.00 0.00 0.00 83 1011.8
20260509152324 64 202 3.5 7.0 0.00 0.00 0.00 82 1011.8
20260509152213 64 177 3.5 7.0 0.00 0.00 0.00 83 1011.8
20260509152144 64 171 3.5 7.0 0.00 0.00 0.00 83 1011.8
20260509152053 64 158 3.5 7.0 0.00 0.00 0.00 83 1011.7
20260509151827 64 110 3.5 7.0 0.00 0.00 0.00 83 1012.0
20260509151734 64 165 3.5 7.0 0.00 0.00 0.00 83 1012.0
20260509151620 64 218 4.3 7.0 0.00 0.00 0.00 83 1012.0
20260509151548 64 191 5.2 7.0 0.00 0.00 0.00 83 1012.0
20260509151420 64 192 4.3 7.0 0.00 0.00 0.00 83 1012.0
20260509151327 64 181 3.5 7.8 0.00 0.00 0.00 83 1012.0
20260509151214 64 159 2.6 7.8 0.00 0.00 0.00 83 1011.9
20260509151142 64 172 1.7 7.8 0.00 0.00 0.00 83 1011.9
20260509151028 64 188 1.7 7.8 0.00 0.00 0.00 84 1012.0
20260509150919 63 173 2.6 7.8 0.00 0.00 0.00 83 1012.0
20260509150826 63 159 3.5 7.8 0.00 0.00 0.00 83 1012.0
20260509150753 63 159 4.3 7.8 0.00 0.00 0.00 84 1012.1
20260509150700 63 172 4.3 7.8 0.00 0.00 0.00 84 1011.9
20260509150549 63 183 4.3 7.0 0.00 0.00 0.00 85 1012.0
20260509150321 63 172 3.5 7.0 0.00 0.00 0.00 85 1011.9
20260509150213 63 201 2.6 7.0 0.00 0.00 0.00 86 1011.9
20260509150140 63 115 1.7 7.0 0.00 0.00 0.00 87 1011.9
20260509150028 63 117 1.7 7.8 0.00 0.00 0.00 86 1011.9
20260509145915 63 192 3.5 7.8 0.00 0.00 0.00 86 1012.0
20260509145821 62 178 3.5 7.8 0.00 0.00 0.00 86 1012.0
20260509145750 62 171 2.6 7.8 0.00 0.00 0.00 86 1011.9
20260509145620 62 219 3.5 7.8 0.00 0.00 0.00 86 1011.9
20260509145527 62 192 4.3 7.8 0.00 0.00 0.00 86 1011.9
20260509145415 62 186 4.3 7.8 0.00 0.00 0.00 86 1011.9
20260509145341 62 200 4.3 7.8 0.00 0.00 0.00 86 1012.0
20260509145229 62 190 3.5 7.8 0.00 0.00 0.00 86 1012.0
20260509145136 62 239 2.6 8.7 0.00 0.00 0.00 86 1011.9
20260509145051 62 207 2.6 8.7 0.00 0.00 0.00 86 1011.9
20260509144825 62 173 4.3 8.7 0.00 0.00 0.00 86 1012.0
20260509144713 62 225 5.2 8.7 0.00 0.00 0.00 86 1012.0
20260509144619 62 191 5.2 8.7 0.00 0.00 0.00 86 1012.0
20260509144527 62 202 5.2 8.7 0.00 0.00 0.00 86 1012.0
20260509144439 62 195 4.3 7.0 0.00 0.00 0.00 87 1012.0
20260509144327 62 195 3.5 7.0 0.00 0.00 0.00 87 1012.0
20260509144255 62 199 2.6 7.0 0.00 0.00 0.00 86 1011.9
20260509144113 62 223 2.6 7.0 0.00 0.00 0.00 87 1012.0
20260509144021 62 180 2.6 7.0 0.00 0.00 0.00 87 1011.9
20260509143947 62 215 3.5 7.0 0.00 0.00 0.00 86 1011.9
20260509143814 62 146 3.5 7.8 0.00 0.00 0.00 86 1012.0
20260509143725 62 202 3.5 7.8 0.00 0.00 0.00 86 1012.0
20260509143632 62 237 4.3 7.8 0.00 0.00 0.00 86 1011.9
20260509143602 62 217 4.3 7.8 0.00 0.00 0.00 86 1011.9
20260509143315 62 238 4.3 7.8 0.00 0.00 0.00 88 1012.0
20260509143243 62 217 3.5 7.8 0.00 0.00 0.00 87 1012.0
20260509143113 61 180 4.3 7.8 0.00 0.00 0.00 87 1011.9
20260509143021 61 163 4.3 7.8 0.00 0.00 0.00 88 1011.9
20260509142929 61 173 3.5 7.8 0.00 0.00 0.00 87 1011.9
20260509142817 61 150 2.6 7.8 0.00 0.00 0.00 87 1011.9
20260509142725 61 155 3.5 7.8 0.00 0.00 0.00 87 1011.9
20260509142615 61 192 3.5 7.8 0.00 0.00 0.00 87 1011.9
20260509142523 61 188 5.2 7.8 0.00 0.00 0.00 87 1011.9
20260509142430 61 188 5.2 7.8 0.00 0.00 0.00 87 1011.9
20260509142317 61 181 4.3 7.8 0.00 0.00 0.00 87 1011.9
20260509142223 61 201 5.2 7.8 0.00 0.00 0.00 87 1011.9
20260509142149 61 217 4.3 7.8 0.00 0.00 0.00 87 1011.9
20260509142104 61 214 4.3 7.8 0.00 0.00 0.00 88 1011.9
20260509141818 61 212 4.3 7.0 0.00 0.00 0.00 88 1012.0
20260509141725 61 216 4.3 7.0 0.00 0.00 0.00 88 1012.0
20260509141612 61 175 4.3 7.0 0.00 0.00 0.00 88 1012.0
20260509141519 61 186 4.3 7.0 0.00 0.00 0.00 88 1012.0
20260509141430 61 189 3.5 7.0 0.00 0.00 0.00 88 1012.0
20260509141317 61 193 2.6 7.0 0.00 0.00 0.00 88 1012.0
20260509141224 61 185 3.5 7.0 0.00 0.00 0.00 88 1012.0
20260509141130 61 186 4.3 7.0 0.00 0.00 0.00 88 1011.9
20260509141038 61 187 4.3 7.8 0.00 0.00 0.00 88 1011.9
20260509140925 61 178 3.5 5.2 0.00 0.00 0.00 88 1011.9
20260509140836 61 197 1.7 5.2 0.00 0.00 0.00 89 1012.0
20260509140722 61 150 0.9 5.2 0.00 0.00 0.00 88 1012.0
20260509140629 61 182 1.7 6.1 0.00 0.00 0.00 88 1011.9
20260509140600 61 192 1.7 6.1 0.00 0.00 0.00 88 1011.9
20260509140314 61 176 3.5 6.1 0.00 0.00 0.00 89 1011.7
20260509140227 61 176 2.6 6.1 0.00 0.00 0.00 89 1011.7
20260509140114 61 168 2.6 6.1 0.00 0.00 0.00 89 1011.7
20260509140022 61 182 2.6 6.1 0.00 0.00 0.00 89 1011.7
20260509135930 60 169 2.6 6.1 0.00 0.00 0.00 89 1011.7
20260509135817 60 195 1.7 6.1 0.00 0.00 0.00 89 1011.6
20260509135728 60 203 0.9 5.2 0.00 0.00 0.00 89 1011.6
20260509135615 60 215 0.9 5.2 0.00 0.00 0.00 89 1011.5
20260509135544 60 159 1.7 5.2 0.00 0.00 0.00 89 1011.5
20260509135430 60 233 1.7 5.2 0.00 0.00 0.00 89 1011.4
20260509135338 60 219 2.6 5.2 0.00 0.00 0.00 89 1011.3
20260509135224 60 207 2.6 5.2 0.00 0.00 0.00 89 1011.3
20260509135133 60 206 2.6 5.2 0.00 0.00 0.00 89 1011.3
20260509135046 60 166 1.7 4.3 0.00 0.00 0.00 89 1011.3
20260509134821 60 150 1.7 3.5 0.00 0.00 0.00 90 1011.3
20260509134728 60 211 2.6 3.5 0.00 0.00 0.00 90 1011.3
20260509134614 60 183 1.7 3.5 0.00 0.00 0.00 90 1011.1
20260509134527 60 183 0.9 3.5 0.00 0.00 0.00 90 1011.1
20260509134414 60 226 0.0 3.5 0.00 0.00 0.00 90 1011.2
20260509134323 60 200 0.9 3.5 0.00 0.00 0.00 90 1011.2
20260509134250 60 200 0.9 3.5 0.00 0.00 0.00 90 1011.1
20260509134117 60 200 1.7 3.5 0.00 0.00 0.00 90 1011.1
20260509134024 60 252 0.9 4.3 0.00 0.00 0.00 90 1011.1
20260509133916 60 192 1.7 4.3 0.00 0.00 0.00 90 1011.2
20260509133843 60 220 1.7 4.3 0.00 0.00 0.00 90 1011.2
20260509133730 60 227 1.7 4.3 0.00 0.00 0.00 90 1011.1
20260509133638 60 221 1.7 4.3 0.00 0.00 0.00 90 1011.2
20260509133547 60 283 1.7 4.3 0.00 0.00 0.00 90 1011.2
20260509133325 60 251 2.6 4.3 0.00 0.00 0.00 90 1011.0
20260509133212 60 253 2.6 4.3 0.00 0.00 0.00 90 1011.0
20260509133119 60 257 2.6 4.3 0.00 0.00 0.00 90 1011.1
20260509133028 60 184 2.6 4.3 0.00 0.00 0.00 90 1011.1
20260509132936 60 232 1.7 4.3 0.00 0.00 0.00 91 1011.1
20260509132822 60 254 1.7 5.2 0.00 0.00 0.00 91 1011.1
20260509132714 60 244 2.6 5.2 0.00 0.00 0.00 91 1011.1
20260509132621 60 259 2.6 5.2 0.00 0.00 0.00 91 1011.1
20260509132548 59 234 2.6 5.2 0.00 0.00 0.00 91 1011.2
20260509132414 59 161 2.6 5.2 0.00 0.00 0.00 91 1011.1
20260509132322 60 194 2.6 5.2 0.00 0.00 0.00 91 1011.1
20260509132229 60 230 2.6 6.1 0.00 0.00 0.00 91 1011.2
20260509132141 59 238 2.6 6.1 0.00 0.00 0.00 91 1011.1
20260509132052 59 249 1.7 6.1 0.00 0.00 0.00 91 1011.1
20260509131826 59 243 1.7 6.1 0.00 0.00 0.00 91 1011.1
20260509131713 59 205 1.7 6.1 0.00 0.00 0.00 91 1011.1
20260509131620 59 261 2.6 6.1 0.00 0.00 0.00 91 1011.1
20260509131551 59 226 2.6 6.1 0.00 0.00 0.00 91 1011.1
20260509131418 59 248 3.5 6.1 0.00 0.00 0.00 91 1011.2
20260509131325 59 234 3.5 6.1 0.00 0.00 0.00 91 1011.2
20260509131212 59 198 2.6 6.1 0.00 0.00 0.00 91 1011.1
20260509131120 59 204 1.7 6.1 0.00 0.00 0.00 91 1011.1
20260509131048 59 185 0.9 6.1 0.00 0.00 0.00 91 1011.1
20260509130918 59 242 2.6 6.1 0.00 0.00 0.00 91 1011.2
20260509130826 59 191 3.5 6.1 0.00 0.00 0.00 91 1011.2
20260509130714 59 207 2.6 5.2 0.00 0.00 0.00 91 1011.3
20260509130621 59 248 1.7 7.0 0.00 0.00 0.00 91 1011.3
20260509130557 59 213 1.7 7.0 0.00 0.00 0.00 91 1011.2
20260509130330 59 232 2.6 7.0 0.00 0.00 0.00 91 1011.3
20260509130218 59 202 3.5 7.0 0.00 0.00 0.00 91 1011.2
20260509130145 59 219 3.5 7.0 0.00 0.00 0.00 91 1011.2
20260509130012 59 200 3.5 7.0 0.00 0.00 0.00 91 1011.2
20260509125919 59 209 4.3 7.0 0.00 0.00 0.00 91 1011.3
20260509125830 59 253 4.3 7.0 0.00 0.00 0.00 91 1011.3
20260509125719 59 228 3.5 7.0 0.00 0.00 0.00 91 1011.2
20260509125626 59 249 2.6 7.0 0.00 0.00 0.00 91 1011.2
20260509125533 59 225 1.7 6.1 0.00 0.00 0.00 91 1011.2
20260509125419 59 275 2.6 6.1 0.00 0.00 0.00 91 1011.3
20260509125326 59 216 3.5 6.1 0.00 0.00 0.00 91 1011.3
20260509125216 59 197 2.6 6.1 0.00 0.00 0.00 91 1011.3
20260509125124 59 196 1.7 6.1 0.00 0.00 0.00 91 1011.3
20260509125056 59 221 1.7 6.1 0.00 0.00 0.00 91 1011.3
20260509124829 59 212 2.6 6.1 0.00 0.00 0.00 91 1011.3
20260509124736 59 211 3.5 6.1 0.00 0.00 0.00 91 1011.4
20260509124627 59 221 3.5 6.1 0.00 0.00 0.00 91 1011.4
20260509124514 59 192 3.5 6.1 0.00 0.00 0.00 91 1011.4
20260509124422 59 211 2.6 6.1 0.00 0.00 0.00 91 1011.4
20260509124330 59 187 2.6 6.1 0.00 0.00 0.00 91 1011.3
20260509124218 59 220 2.6 6.1 0.00 0.00 0.00 91 1011.4
20260509124127 59 203 3.5 6.1 0.00 0.00 0.00 91 1011.4
20260509124017 59 192 3.5 6.1 0.00 0.00 0.00 91 1011.4
20260509123926 59 200 2.6 6.1 0.00 0.00 0.00 91 1011.4
20260509123834 59 196 2.6 6.1 0.00 0.00 0.00 91 1011.4
20260509123720 59 192 3.5 6.1 0.00 0.00 0.00 91 1011.4
20260509123648 59 250 3.5 7.0 0.00 0.00 0.00 91 1011.4
20260509123601 59 247 2.6 7.0 0.00 0.00 0.00 91 1011.4
20260509123314 59 248 2.6 7.8 0.00 0.00 0.00 91 1011.3
20260509123221 59 232 2.6 7.8 0.00 0.00 0.00 91 1011.3
20260509123129 59 184 2.6 7.8 0.00 0.00 0.00 91 1011.4
20260509123017 59 227 2.6 7.8 0.00 0.00 0.00 91 1011.5
20260509122928 59 239 2.6 7.8 0.00 0.00 0.00 91 1011.5
20260509122816 59 263 3.5 7.8 0.00 0.00 0.00 91 1011.5
20260509122725 59 183 3.5 7.8 0.00 0.00 0.00 91 1011.5
20260509122611 59 221 3.5 7.8 0.00 0.00 0.00 91 1011.6
20260509122518 59 202 4.3 7.8 0.00 0.00 0.00 91 1011.5
20260509122426 59 182 6.1 7.8 0.00 0.00 0.00 91 1011.5
20260509122337 59 184 5.2 7.8 0.00 0.00 0.00 91 1011.6
20260509122224 59 197 5.2 7.8 0.00 0.00 0.00 91 1011.6
20260509122131 59 186 4.3 7.8 0.00 0.00 0.00 91 1011.6
20260509122100 59 205 4.3 7.8 0.00 0.00 0.00 91 1011.5
20260509121834 59 199 4.3 7.8 0.00 0.00 0.00 91 1011.4
20260509121724 59 205 5.2 7.8 0.00 0.00 0.00 91 1011.4
20260509121612 59 206 5.2 7.8 0.00 0.00 0.00 90 1011.4
20260509121539 59 195 5.2 7.8 0.00 0.00 0.00 90 1011.4
20260509121426 59 201 5.2 7.8 0.00 0.00 0.00 91 1011.4
20260509121314 59 195 3.5 7.0 0.00 0.00 0.00 91 1011.4
20260509121221 59 192 2.6 7.0 0.00 0.00 0.00 91 1011.4
20260509121112 59 194 3.5 7.0 0.00 0.00 0.00 91 1011.4
20260509121019 59 196 3.5 7.0 0.00 0.00 0.00 91 1011.4
20260509120926 59 192 3.5 7.0 0.00 0.00 0.00 91 1011.4
20260509120814 59 188 3.5 6.1 0.00 0.00 0.00 91 1011.4
20260509120721 59 190 2.6 6.1 0.00 0.00 0.00 91 1011.4
20260509120630 59 192 3.5 6.1 0.00 0.00 0.00 91 1011.4
20260509120600 59 186 3.5 6.1 0.00 0.00 0.00 91 1011.3
20260509120312 59 164 3.5 6.1 0.00 0.00 0.00 91 1011.4
20260509120220 59 182 3.5 6.1 0.00 0.00 0.00 91 1011.3
20260509120127 59 188 2.6 6.1 0.00 0.00 0.00 91 1011.3
20260509120019 59 177 1.7 6.1 0.00 0.00 0.00 91 1011.2
20260509115948 59 178 2.6 6.1 0.00 0.00 0.00 91 1011.2
20260509115814 59 175 3.5 6.1 0.00 0.00 0.00 91 1011.3
20260509115721 59 167 3.5 6.1 0.00 0.00 0.00 91 1011.3
20260509115628 59 219 3.5 6.1 0.00 0.00 0.00 91 1011.2
20260509115519 59 248 2.6 5.2 0.00 0.00 0.00 91 1011.2
20260509115426 59 200 2.6 5.2 0.00 0.00 0.00 91 1011.2
20260509115314 59 200 2.6 5.2 0.00 0.00 0.00 91 1011.2
20260509115222 59 202 2.6 5.2 0.00 0.00 0.00 91 1011.2
20260509115149 59 180 1.7 4.3 0.00 0.00 0.00 91 1011.1
20260509115123 59 225 0.9 4.3 0.00 0.00 0.00 91 1011.1
20260509114815 59 227 0.9 4.3 0.00 0.00 0.00 91 1011.0
20260509114722 59 191 0.9 4.3 0.00 0.00 0.00 91 1011.0
20260509114630 59 200 1.7 4.3 0.00 0.00 0.00 91 1010.9
20260509114518 59 195 2.6 4.3 0.00 0.00 0.00 91 1011.0
20260509114425 59 244 2.6 4.3 0.00 0.00 0.00 91 1011.0
20260509114337 59 216 1.7 4.3 0.00 0.00 0.00 91 1011.0
20260509114222 59 220 2.6 4.3 0.00 0.00 0.00 91 1011.0
20260509114129 59 215 2.6 4.3 0.00 0.00 0.00 90 1010.9
20260509114016 59 201 2.6 4.3 0.00 0.00 0.00 91 1010.9
20260509113944 59 233 1.7 4.3 0.00 0.00 0.00 90 1010.9
20260509113829 59 217 1.7 4.3 0.00 0.00 0.00 90 1010.9
20260509113720 59 228 1.7 4.3 0.00 0.00 0.00 90 1010.9
20260509113629 59 205 2.6 4.3 0.00 0.00 0.00 90 1010.8
20260509113557 59 210 3.5 4.3 0.00 0.00 0.00 90 1010.8
20260509113312 59 171 2.6 4.3 0.00 0.00 0.00 90 1010.7
20260509113224 59 203 1.7 4.3 0.00 0.00 0.00 91 1010.7
20260509113111 59 195 1.7 3.5 0.00 0.00 0.00 91 1010.7
20260509113019 59 175 1.7 3.5 0.00 0.00 0.00 91 1010.7
20260509112926 59 169 1.7 3.5 0.00 0.00 0.00 91 1010.7
20260509112814 59 193 1.7 3.5 0.00 0.00 0.00 91 1010.6
20260509112742 59 185 0.9 3.5 0.00 0.00 0.00 91 1010.6
20260509112612 59 211 0.9 2.6 0.00 0.00 0.00 90 1010.5
20260509112520 59 211 0.9 2.6 0.00 0.00 0.00 91 1010.5
20260509112427 59 211 0.9 2.6 0.00 0.00 0.00 90 1010.6
20260509112314 59 218 0.9 2.6 0.00 0.00 0.00 90 1010.5
20260509112221 58 205 0.9 2.6 0.00 0.00 0.00 90 1010.5
20260509112123 58 205 1.7 2.6 0.00 0.00 0.00 90 1010.5
20260509111816 58 209 1.7 2.6 0.00 0.00 0.00 90 1010.5
20260509111723 58 178 1.7 2.6 0.00 0.00 0.00 91 1010.5
20260509111652 58 200 0.9 2.6 0.00 0.00 0.00 91 1010.5
20260509111518 58 204 0.9 2.6 0.00 0.00 0.00 91 1010.6
20260509111429 58 229 0.9 2.6 0.00 0.00 0.00 91 1010.6
20260509111336 58 246 0.9 2.6 0.00 0.00 0.00 91 1010.6
20260509111243 58 242 0.9 4.3 0.00 0.00 0.00 90 1010.6
20260509111129 58 211 0.9 4.3 0.00 0.00 0.00 90 1010.4
20260509111037 58 194 1.7 4.3 0.00 0.00 0.00 90 1010.4
20260509110923 58 198 1.7 4.3 0.00 0.00 0.00 90 1010.4
20260509110851 58 198 1.7 4.3 0.00 0.00 0.00 90 1010.3
20260509110721 58 216 0.9 4.3 0.00 0.00 0.00 90 1010.3
20260509110600 58 182 1.7 4.3 0.00 0.00 0.00 90 1010.4
20260509110314 58 210 2.6 4.3 0.00 0.00 0.00 90 1010.6
20260509110224 58 196 2.6 4.3 0.00 0.00 0.00 90 1010.6
20260509110111 58 180 2.6 4.3 0.00 0.00 0.00 90 1010.4
20260509110019 58 194 2.6 4.3 0.00 0.00 0.00 90 1010.4
20260509105927 58 192 2.6 4.3 0.00 0.00 0.00 90 1010.4
20260509105834 58 200 2.6 4.3 0.00 0.00 0.00 90 1010.3
20260509105719 58 208 2.6 4.3 0.00 0.00 0.00 90 1010.4
20260509105646 58 177 1.7 4.3 0.00 0.00 0.00 90 1010.4
20260509105518 58 179 0.9 3.5 0.00 0.00 0.00 90 1010.4
20260509105425 58 155 0.9 3.5 0.00 0.00 0.00 90 1010.4
20260509105313 58 187 0.0 4.3 0.00 0.00 0.00 90 1010.4
20260509105241 58 202 0.0 4.3 0.00 0.00 0.00 90 1010.3
20260509105120 58 202 0.9 4.3 0.00 0.00 0.00 90 1010.3
20260509104813 58 202 1.7 4.3 0.00 0.00 0.00 90 1010.2
20260509104740 58 199 1.7 4.3 0.00 0.00 0.00 90 1010.2
20260509104627 58 191 1.7 4.3 0.00 0.00 0.00 90 1010.2
20260509104514 58 186 1.7 3.5 0.00 0.00 0.00 90 1010.1
20260509104421 58 193 1.7 3.5 0.00 0.00 0.00 90 1010.1
20260509104328 58 206 0.9 3.5 0.00 0.00 0.00 90 1010.1
20260509104218 58 218 0.9 2.6 0.00 0.00 0.00 90 1010.1
20260509104125 58 201 0.9 2.6 0.00 0.00 0.00 90 1010.1
20260509104012 58 203 0.9 2.6 0.00 0.00 0.00 90 1010.1
20260509103941 58 196 0.9 2.6 0.00 0.00 0.00 90 1010.1
20260509103827 58 192 0.0 2.6 0.00 0.00 0.00 90 1010.0
20260509103718 58 221 0.9 3.5 0.00 0.00 0.00 90 1010.1
20260509103618 58 221 0.9 3.5 0.00 0.00 0.00 90 1010.1
20260509103311 58 205 0.9 3.5 0.00 0.00 0.00 90 1010.1
20260509103219 58 205 0.9 3.5 0.00 0.00 0.00 90 1010.1
20260509103130 58 206 0.9 3.5 0.00 0.00 0.00 90 1010.1
20260509103018 58 219 0.9 3.5 0.00 0.00 0.00 90 1010.1
20260509102926 58 209 0.9 3.5 0.00 0.00 0.00 90 1010.1
20260509102814 58 199 0.9 3.5 0.00 0.00 0.00 90 1010.0
20260509102742 58 209 1.7 3.5 0.00 0.00 0.00 90 1010.0
20260509102627 58 217 2.6 3.5 0.00 0.00 0.00 90 1010.0
20260509102519 58 209 2.6 3.5 0.00 0.00 0.00 90 1009.8
20260509102427 58 200 1.7 3.5 0.00 0.00 0.00 90 1009.8
20260509102314 58 182 0.9 3.5 0.00 0.00 0.00 90 1009.8
20260509102222 58 152 0.0 3.5 0.00 0.00 0.00 90 1009.8
20260509102150 58 152 0.0 3.5 0.00 0.00 0.00 90 1009.8
20260509102124 58 150 0.0 3.5 0.00 0.00 0.00 90 1009.8
20260509101818 58 150 0.0 3.5 0.00 0.00 0.00 90 1009.8
20260509101725 58 150 0.9 3.5 0.00 0.00 0.00 90 1009.8
20260509101614 58 150 1.7 3.5 0.00 0.00 0.00 90 1009.8
20260509101543 58 136 1.7 2.6 0.00 0.00 0.00 90 1009.8
20260509101414 58 139 1.7 2.6 0.00 0.00 0.00 90 1009.7
20260509101321 58 153 1.7 2.6 0.00 0.00 0.00 90 1009.7
20260509101228 58 153 1.7 2.6 0.00 0.00 0.00 90 1009.8
20260509101116 58 145 1.7 2.6 0.00 0.00 0.00 90 1009.8
20260509101024 58 143 1.7 2.6 0.00 0.00 0.00 90 1009.8
20260509100930 58 136 0.9 3.5 0.00 0.00 0.00 90 1009.8
20260509100821 58 189 0.9 3.5 0.00 0.00 0.00 90 1009.9
20260509100729 58 190 0.0 3.5 0.00 0.00 0.00 90 1009.8
20260509100616 58 190 0.0 3.5 0.00 0.00 0.00 90 1009.9
20260509100547 58 190 0.9 3.5 0.00 0.00 0.00 90 1009.9
20260509100340 58 188 0.9 3.5 0.00 0.00 0.00 90 1009.8
20260509100230 58 175 1.7 3.5 0.00 0.00 0.00 90 1009.8
20260509100118 58 226 1.7 3.5 0.00 0.00 0.00 90 1009.9
20260509100026 58 186 1.7 3.5 0.00 0.00 0.00 90 1009.9
20260509095933 58 134 1.7 3.5 0.00 0.00 0.00 90 1009.9
20260509095819 58 139 0.9 3.5 0.00 0.00 0.00 90 1009.8
20260509095727 58 176 0.9 4.3 0.00 0.00 0.00 90 1009.8
20260509095618 58 150 1.7 4.3 0.00 0.00 0.00 90 1009.9
20260509095525 58 126 1.7 4.3 0.00 0.00 0.00 90 1009.9
20260509095412 58 153 1.7 4.3 0.00 0.00 0.00 90 1009.7
20260509095320 58 169 1.7 4.3 0.00 0.00 0.00 90 1009.7
20260509095248 58 148 1.7 4.3 0.00 0.00 0.00 90 1009.9
20260509095118 58 130 1.7 4.3 0.00 0.00 0.00 90 1010.0
20260509095047 58 181 1.7 4.3 0.00 0.00 0.00 90 1010.0
20260509094821 58 178 0.9 3.5 0.00 0.00 0.00 90 1010.0
20260509094727 58 189 0.9 3.5 0.00 0.00 0.00 90 1010.0
20260509094615 58 180 0.9 3.5 0.00 0.00 0.00 90 1010.0
20260509094548 58 199 0.9 3.5 0.00 0.00 0.00 90 1010.0
20260509094414 58 187 0.9 4.3 0.00 0.00 0.00 90 1010.0
20260509094322 58 163 0.9 4.3 0.00 0.00 0.00 90 1010.0
20260509094230 58 163 1.7 4.3 0.00 0.00 0.00 90 1010.1
20260509094119 58 157 1.7 4.3 0.00 0.00 0.00 89 1010.3
20260509094011 58 202 0.9 4.3 0.00 0.00 0.00 89 1010.3
20260509093917 58 216 0.0 4.3 0.00 0.00 0.00 89 1010.4
20260509093845 58 223 0.0 4.3 0.00 0.00 0.00 89 1010.4
20260509093731 58 223 1.7 4.3 0.00 0.00 0.00 89 1010.4
20260509093619 58 215 2.6 4.3 0.00 0.00 0.00 89 1010.5
20260509093553 58 217 2.6 5.2 0.00 0.00 0.00 89 1010.5
20260509093326 58 228 2.6 5.2 0.00 0.00 0.00 89 1010.3
20260509093213 58 220 2.6 5.2 0.00 0.00 0.00 89 1010.2
20260509093121 58 196 2.6 5.2 0.00 0.00 0.00 89 1010.2
20260509093029 58 192 2.6 5.2 0.00 0.00 0.00 89 1010.2
20260509092916 58 207 2.6 5.2 0.00 0.00 0.00 89 1010.2
20260509092827 58 200 3.5 5.2 0.00 0.00 0.00 89 1010.2
20260509092715 58 220 2.6 5.2 0.00 0.00 0.00 89 1010.4
20260509092622 58 204 3.5 5.2 0.00 0.00 0.00 89 1010.4
20260509092529 58 213 3.5 5.2 0.00 0.00 0.00 88 1010.3
20260509092416 58 213 3.5 6.1 0.00 0.00 0.00 88 1010.4
20260509092327 58 181 2.6 6.1 0.00 0.00 0.00 88 1010.4
20260509092214 58 180 2.6 6.1 0.00 0.00 0.00 88 1010.3
20260509092122 58 205 3.5 6.1 0.00 0.00 0.00 88 1010.3
20260509092053 58 198 3.5 6.1 0.00 0.00 0.00 88 1010.3
20260509091847 58 206 3.5 7.0 0.00 0.00 0.00 88 1010.2
20260509091718 58 173 3.5 7.0 0.00 0.00 0.00 88 1010.1
20260509091646 58 145 3.5 7.0 0.00 0.00 0.00 87 1010.1
20260509091552 58 175 3.5 7.0 0.00 0.00 0.00 87 1010.0
20260509091418 58 168 4.3 7.8 0.00 0.00 0.00 87 1010.1
20260509091326 58 192 3.5 7.8 0.00 0.00 0.00 87 1010.1
20260509091234 58 192 2.6 7.8 0.00 0.00 0.00 87 1010.1
20260509091120 58 175 3.5 7.8 0.00 0.00 0.00 87 1010.1
20260509091011 58 183 5.2 9.6 0.00 0.00 0.00 87 1010.0
20260509090919 58 163 5.2 9.6 0.00 0.00 0.00 87 1010.1
20260509090827 58 179 5.2 9.6 0.00 0.00 0.00 87 1010.1
20260509090734 58 193 4.3 9.6 0.00 0.00 0.00 87 1010.1
20260509090620 58 186 4.3 9.6 0.00 0.00 0.00 87 1010.1
20260509090553 58 175 4.3 9.6 0.00 0.00 0.00 87 1010.2
20260509090327 58 139 5.2 9.6 0.00 0.00 0.00 86 1010.2
20260509090214 58 175 4.3 10.4 0.00 0.00 0.00 86 1010.1
20260509090122 58 160 3.5 7.0 0.00 0.00 0.00 86 1010.1
20260509090029 59 146 3.5 7.0 0.00 0.00 0.00 86 1010.3
20260509085921 58 141 3.5 7.0 0.00 0.00 0.00 86 1010.3
20260509085829 59 160 3.5 7.8 0.00 0.00 0.00 86 1010.2
20260509085716 58 179 3.5 7.8 0.00 0.00 0.00 86 1010.3
20260509085624 58 180 3.5 7.8 0.00 0.00 0.00 86 1010.3
20260509085531 59 185 3.5 7.8 0.00 0.00 0.00 86 1010.3
20260509085421 59 173 4.3 7.8 0.00 0.00 0.00 86 1010.3
20260509085330 59 179 4.3 7.8 0.00 0.00 0.00 86 1010.3
20260509085218 59 126 4.3 7.8 0.00 0.00 0.00 86 1010.2
20260509085124 59 147 4.3 7.8 0.00 0.00 0.00 85 1010.2
20260509085054 59 124 4.3 7.8 0.00 0.00 0.00 85 1010.2
20260509084811 59 176 3.5 7.0 0.00 0.00 0.00 85 1010.4
20260509084718 59 182 3.5 7.0 0.00 0.00 0.00 85 1010.4
20260509084626 59 166 4.3 7.0 0.00 0.00 0.00 85 1010.4
20260509084514 59 153 4.3 7.0 0.00 0.00 0.00 85 1010.4
20260509084441 59 198 3.5 6.1 0.00 0.00 0.00 85 1010.5
20260509084326 59 180 3.5 5.2 0.00 0.00 0.00 85 1010.5
20260509084218 59 182 3.5 5.2 0.00 0.00 0.00 85 1010.5
20260509084125 59 184 3.5 5.2 0.00 0.00 0.00 85 1010.5
20260509084013 59 200 2.6 6.1 0.00 0.00 0.00 85 1010.6
20260509083941 59 165 2.6 6.1 0.00 0.00 0.00 85 1010.6
20260509083827 59 182 2.6 6.1 0.00 0.00 0.00 85 1010.5
20260509083715 58 168 3.5 7.0 0.00 0.00 0.00 85 1010.5
20260509083627 59 181 3.5 7.0 0.00 0.00 0.00 85 1010.5
20260509083557 58 185 3.5 7.0 0.00 0.00 0.00 85 1010.5
20260509083330 58 197 2.6 7.0 0.00 0.00 0.00 85 1010.6
20260509083218 59 165 2.6 7.0 0.00 0.00 0.00 85 1010.7
20260509083146 59 186 3.5 7.0 0.00 0.00 0.00 85 1010.7
20260509083016 58 198 4.3 7.0 0.00 0.00 0.00 85 1010.6
20260509082924 58 191 3.5 7.0 0.00 0.00 0.00 85 1010.6
20260509082851 58 171 3.5 7.0 0.00 0.00 0.00 85 1010.7
20260509082737 58 181 3.5 6.1 0.00 0.00 0.00 85 1010.8
20260509082624 58 182 3.5 6.1 0.00 0.00 0.00 85 1010.8
20260509082531 58 186 3.5 6.1 0.00 0.00 0.00 85 1010.9
20260509082423 58 180 3.5 7.0 0.00 0.00 0.00 85 1010.9
20260509082330 58 178 2.6 7.0 0.00 0.00 0.00 85 1010.8
20260509082237 58 163 1.7 7.0 0.00 0.00 0.00 85 1010.8
20260509082124 58 180 3.5 7.0 0.00 0.00 0.00 85 1010.8
20260509082055 58 151 3.5 7.0 0.00 0.00 0.00 85 1010.8
20260509081812 58 191 4.3 7.0 0.00 0.00 0.00 86 1010.9
20260509081719 58 177 4.3 7.0 0.00 0.00 0.00 86 1010.8
20260509081626 58 192 3.5 7.0 0.00 0.00 0.00 86 1010.8
20260509081515 58 190 2.6 4.3 0.00 0.00 0.00 86 1010.8
20260509081422 58 163 2.6 4.3 0.00 0.00 0.00 86 1010.8
20260509081313 58 173 2.6 4.3 0.00 0.00 0.00 86 1010.8
20260509081220 58 178 1.7 4.3 0.00 0.00 0.00 86 1010.8
20260509081128 58 180 1.7 4.3 0.00 0.00 0.00 86 1010.9
20260509081016 58 201 1.7 4.3 0.00 0.00 0.00 86 1010.8
20260509080923 58 206 1.7 4.3 0.00 0.00 0.00 86 1010.8
20260509080815 58 203 0.9 4.3 0.00 0.00 0.00 86 1010.8
20260509080742 58 198 0.9 3.5 0.00 0.00 0.00 86 1010.8
20260509080648 58 198 0.9 3.5 0.00 0.00 0.00 86 1010.7
20260509080618 58 198 0.9 4.3 0.00 0.00 0.00 86 1010.7
20260509080351 58 209 0.9 4.3 0.00 0.00 0.00 87 1010.9
20260509080216 58 183 1.7 4.3 0.00 0.00 0.00 87 1010.9
20260509080127 58 196 1.7 4.3 0.00 0.00 0.00 87 1010.9
20260509080015 58 173 1.7 4.3 0.00 0.00 0.00 87 1010.9
20260509075923 58 197 0.9 4.3 0.00 0.00 0.00 87 1010.9
20260509075831 58 187 0.9 4.3 0.00 0.00 0.00 87 1011.0
20260509075717 58 221 1.7 4.3 0.00 0.00 0.00 87 1011.0
20260509075624 57 173 2.6 4.3 0.00 0.00 0.00 87 1011.0
20260509075535 57 196 1.7 4.3 0.00 0.00 0.00 87 1011.0
20260509075422 57 182 0.9 2.6 0.00 0.00 0.00 87 1011.0
20260509075329 57 215 0.9 2.6 0.00 0.00 0.00 87 1011.0
20260509075218 57 200 0.9 2.6 0.00 0.00 0.00 88 1011.1
20260509075126 57 213 0.9 2.6 0.00 0.00 0.00 88 1011.1
20260509075059 57 240 0.9 2.6 0.00 0.00 0.00 88 1011.1
20260509074812 57 200 0.9 6.1 0.00 0.00 0.00 88 1010.8
20260509074720 57 200 0.9 6.1 0.00 0.00 0.00 88 1010.8
20260509074628 57 200 0.9 6.1 0.00 0.00 0.00 88 1010.7
20260509074515 57 161 0.9 6.1 0.00 0.00 0.00 88 1010.4
20260509074426 57 183 0.9 6.1 0.00 0.00 0.00 88 1010.4
20260509074314 57 204 1.7 6.1 0.00 0.00 0.00 88 1010.5
20260509074221 57 191 2.6 6.1 0.00 0.00 0.00 88 1010.5
20260509074128 57 174 3.5 6.1 0.00 0.00 0.00 88 1010.5
20260509074034 57 200 4.3 6.1 0.00 0.00 0.00 88 1010.6
20260509073919 56 169 4.3 6.1 0.00 0.00 0.00 88 1010.6
20260509073829 56 193 4.3 5.2 0.00 0.00 0.00 88 1010.6
20260509073717 56 176 2.6 5.2 0.00 0.00 0.00 88 1010.6
20260509073625 56 190 1.7 4.3 0.00 0.00 0.00 88 1010.6
20260509073555 56 209 0.9 3.5 0.00 0.00 0.00 88 1010.6
20260509073312 56 178 0.9 3.5 0.00 0.00 0.00 89 1010.5
20260509073220 56 163 0.9 3.5 0.00 0.00 0.00 89 1010.5
20260509073128 56 163 0.9 3.5 0.00 0.00 0.00 89 1010.4
20260509073014 56 163 0.9 3.5 0.00 0.00 0.00 89 1010.5
20260509072942 56 163 1.7 3.5 0.00 0.00 0.00 89 1010.5
20260509072828 56 152 1.7 3.5 0.00 0.00 0.00 89 1010.4
20260509072719 56 146 0.9 3.5 0.00 0.00 0.00 89 1010.4
20260509072626 56 157 0.9 2.6 0.00 0.00 0.00 89 1010.4
20260509072514 56 186 0.9 2.6 0.00 0.00 0.00 89 1010.5
20260509072422 56 186 0.9 2.6 0.00 0.00 0.00 89 1010.5
20260509072330 56 186 0.9 2.6 0.00 0.00 0.00 89 1010.6
20260509072221 56 186 1.7 2.6 0.00 0.00 0.00 89 1010.6
20260509072129 56 186 1.7 2.6 0.00 0.00 0.00 89 1010.7
20260509072100 56 185 0.9 2.6 0.00 0.00 0.00 89 1010.7
20260509071814 55 161 0.9 2.6 0.00 0.00 0.00 89 1010.7
20260509071720 55 161 0.9 2.6 0.00 0.00 0.00 89 1010.7
20260509071631 55 161 0.0 2.6 0.00 0.00 0.00 89 1010.7
20260509071539 55 161 0.0 2.6 0.00 0.00 0.00 89 1010.6
20260509071425 55 161 0.0 2.6 0.00 0.00 0.00 89 1010.6
20260509071311 55 161 0.9 2.6 0.00 0.00 0.00 90 1010.6
20260509071220 55 161 0.9 2.6 0.00 0.00 0.00 90 1010.6
20260509071148 55 140 0.9 2.6 0.00 0.00 0.00 90 1010.5
20260509071018 55 138 0.9 2.6 0.00 0.00 0.00 90 1010.5
20260509070946 55 172 0.9 2.6 0.00 0.00 0.00 90 1010.5
20260509070812 55 172 0.9 2.6 0.00 0.00 0.00 90 1010.5
20260509070720 55 172 0.9 2.6 0.00 0.00 0.00 89 1010.5
20260509070628 55 167 0.9 2.6 0.00 0.00 0.00 90 1010.4
20260509070601 55 180 0.0 2.6 0.00 0.00 0.00 90 1010.4
20260509070314 55 175 0.9 2.6 0.00 0.00 0.00 90 1010.5
20260509070223 55 145 1.7 2.6 0.00 0.00 0.00 90 1010.5
20260509070130 55 134 1.7 2.6 0.00 0.00 0.00 90 1010.5
20260509070017 55 155 0.9 1.7 0.00 0.00 0.00 89 1010.5
20260509065924 55 227 0.0 1.7 0.00 0.00 0.00 89 1010.5
20260509065816 55 227 0.0 1.7 0.00 0.00 0.00 89 1010.6
20260509065723 55 229 0.0 1.7 0.00 0.00 0.00 89 1010.6
20260509065629 55 271 0.0 1.7 0.00 0.00 0.00 89 1010.7
20260509065517 55 271 0.0 1.7 0.00 0.00 0.00 89 1010.7
20260509065444 55 271 0.0 1.7 0.00 0.00 0.00 89 1010.7
20260509065330 55 271 0.0 1.7 0.00 0.00 0.00 89 1010.7
20260509065241 55 271 0.9 1.7 0.00 0.00 0.00 89 1010.7
20260509065147 55 271 0.9 1.7 0.00 0.00 0.00 89 1010.8
20260509065056 55 271 0.9 1.7 0.00 0.00 0.00 89 1010.7
20260509064829 55 271 0.9 1.7 0.00 0.00 0.00 89 1010.8
20260509064738 55 271 0.0 0.9 0.00 0.00 0.00 89 1010.8
20260509064624 55 271 0.0 0.0 0.00 0.00 0.00 88 1010.8
20260509064517 55 271 0.0 0.0 0.00 0.00 0.00 88 1010.7
20260509064424 55 271 0.0 0.0 0.00 0.00 0.00 88 1010.7
20260509064331 55 271 0.0 0.0 0.00 0.00 0.00 89 1010.6
20260509064218 55 271 0.0 0.0 0.00 0.00 0.00 88 1010.6
20260509064124 55 271 0.0 0.0 0.00 0.00 0.00 88 1010.6
20260509064016 55 271 0.0 0.0 0.00 0.00 0.00 88 1010.6
20260509063924 55 271 0.0 0.0 0.00 0.00 0.00 88 1010.6
20260509063811 55 271 0.0 0.0 0.00 0.00 0.00 88 1010.5
20260509063719 55 271 0.0 0.0 0.00 0.00 0.00 88 1010.5
20260509063647 55 271 0.0 0.0 0.00 0.00 0.00 88 1010.5
20260509063621 55 271 0.0 0.0 0.00 0.00 0.00 88 1010.4
20260509063314 55 271 0.0 0.0 0.00 0.00 0.00 88 1010.5
20260509063221 55 271 0.0 0.0 0.00 0.00 0.00 88 1010.5
20260509063128 55 271 0.0 0.0 0.00 0.00 0.00 88 1010.6
20260509063035 55 271 0.0 0.0 0.00 0.00 0.00 88 1010.5
20260509062922 55 271 0.0 0.0 0.00 0.00 0.00 88 1010.5
20260509062814 55 271 0.0 0.0 0.00 0.00 0.00 88 1010.5
20260509062722 55 271 0.0 0.0 0.00 0.00 0.00 88 1010.5
20260509062650 55 271 0.0 0.0 0.00 0.00 0.00 88 1010.5
20260509062516 55 271 0.0 0.0 0.00 0.00 0.00 88 1010.5
20260509062423 55 271 0.0 0.0 0.00 0.00 0.00 88 1010.5
20260509062314 55 271 0.0 0.0 0.00 0.00 0.00 88 1010.4
20260509062222 55 271 0.0 0.0 0.00 0.00 0.00 88 1010.4
20260509062130 55 271 0.0 0.0 0.00 0.00 0.00 88 1010.5
20260509062101 55 271 0.0 0.0 0.00 0.00 0.00 88 1010.4
20260509061836 55 271 0.0 0.9 0.00 0.00 0.00 88 1010.5
20260509061726 55 271 0.0 0.9 0.00 0.00 0.00 88 1010.5
20260509061633 55 271 0.0 0.9 0.00 0.00 0.00 88 1010.6
20260509061541 55 271 0.0 0.9 0.00 0.00 0.00 87 1010.6
20260509061428 55 271 0.0 0.9 0.00 0.00 0.00 87 1010.5
20260509061335 55 271 0.0 0.9 0.00 0.00 0.00 87 1010.5
20260509061241 55 271 0.0 0.9 0.00 0.00 0.00 87 1010.5
20260509061148 55 271 0.0 0.9 0.00 0.00 0.00 87 1010.5
20260509061014 55 271 0.0 0.9 0.00 0.00 0.00 87 1010.5
20260509060927 55 277 0.0 0.0 0.00 0.00 0.00 87 1010.5
20260509060815 55 279 0.0 0.0 0.00 0.00 0.00 87 1010.6
20260509060722 55 279 0.0 0.0 0.00 0.00 0.00 87 1010.6
20260509060605 56 279 0.0 0.0 0.00 0.00 0.00 87 1010.6
20260509060339 56 279 0.0 0.0 0.00 0.00 0.00 87 1010.8
20260509060224 56 279 0.0 0.0 0.00 0.00 0.00 86 1010.8
20260509060112 56 279 0.0 0.0 0.00 0.00 0.00 86 1010.8
20260509060020 56 279 0.0 0.0 0.00 0.00 0.00 86 1010.8
20260509055927 56 279 0.0 0.0 0.00 0.00 0.00 86 1010.8
20260509055818 56 279 0.0 0.9 0.00 0.00 0.00 86 1010.8
20260509055725 56 279 0.0 2.6 0.00 0.00 0.00 86 1010.8
20260509055612 56 279 0.0 2.6 0.00 0.00 0.00 86 1010.8
20260509055541 56 279 0.0 2.6 0.00 0.00 0.00 86 1010.8
20260509055427 56 279 0.0 2.6 0.00 0.00 0.00 86 1010.8
20260509055314 56 279 0.0 2.6 0.00 0.00 0.00 86 1010.8
20260509055247 56 279 0.9 2.6 0.00 0.00 0.00 86 1010.8
20260509055132 56 279 0.9 2.6 0.00 0.00 0.00 86 1010.8
20260509055102 56 279 0.9 2.6 0.00 0.00 0.00 85 1010.8
20260509054835 56 142 0.0 0.0 0.00 0.00 0.00 85 1010.8
20260509054721 56 142 0.0 0.0 0.00 0.00 0.00 85 1010.8
20260509054614 56 142 0.0 0.0 0.00 0.00 0.00 85 1010.8
20260509054521 57 142 0.0 0.0 0.00 0.00 0.00 85 1010.8
20260509054427 57 142 0.0 0.0 0.00 0.00 0.00 85 1010.7
20260509054315 57 142 0.0 0.0 0.00 0.00 0.00 85 1010.7
20260509054244 57 142 0.0 0.0 0.00 0.00 0.00 85 1010.7
20260509054129 57 142 0.0 0.0 0.00 0.00 0.00 85 1010.8
20260509054021 57 142 0.0 0.0 0.00 0.00 0.00 85 1010.8
20260509053929 57 142 0.0 0.0 0.00 0.00 0.00 85 1010.8
20260509053817 57 142 0.0 0.0 0.00 0.00 0.00 85 1010.8
20260509053724 57 142 0.0 0.0 0.00 0.00 0.00 85 1010.8
20260509053612 57 142 0.0 0.0 0.00 0.00 0.00 84 1010.9
20260509053546 57 142 0.0 0.0 0.00 0.00 0.00 84 1010.9
20260509053319 57 142 0.0 0.0 0.00 0.00 0.00 84 1011.0
20260509053226 57 142 0.0 0.0 0.00 0.00 0.00 84 1011.0
20260509053115 57 142 0.0 0.0 0.00 0.00 0.00 84 1011.1
20260509053022 57 142 0.0 0.0 0.00 0.00 0.00 84 1011.1
20260509052913 57 142 0.0 0.0 0.00 0.00 0.00 84 1011.1
20260509052821 57 142 0.0 0.0 0.00 0.00 0.00 83 1011.1
20260509052727 57 142 0.0 0.0 0.00 0.00 0.00 83 1011.1
20260509052616 57 142 0.0 0.0 0.00 0.00 0.00 83 1011.1
20260509052543 57 142 0.0 0.0 0.00 0.00 0.00 83 1011.1
20260509052413 58 142 0.0 0.0 0.00 0.00 0.00 83 1011.1
20260509052319 58 142 0.0 0.0 0.00 0.00 0.00 83 1011.1
20260509052226 58 142 0.0 0.0 0.00 0.00 0.00 83 1011.1
20260509052154 58 142 0.0 0.0 0.00 0.00 0.00 83 1011.1
20260509052125 58 142 0.0 0.9 0.00 0.00 0.00 83 1011.1
20260509051818 58 142 0.0 0.9 0.00 0.00 0.00 82 1011.2
20260509051730 58 142 0.0 0.9 0.00 0.00 0.00 82 1011.2
20260509051618 58 142 0.0 0.9 0.00 0.00 0.00 82 1011.2
20260509051526 58 142 0.0 0.9 0.00 0.00 0.00 82 1011.2
20260509051433 58 142 0.0 0.9 0.00 0.00 0.00 82 1011.1
20260509051319 58 142 0.0 0.9 0.00 0.00 0.00 82 1011.1
20260509051226 58 142 0.0 0.9 0.00 0.00 0.00 82 1011.1
20260509051117 58 142 0.0 0.9 0.00 0.00 0.00 82 1011.2
20260509051023 58 142 0.0 0.9 0.00 0.00 0.00 82 1011.2
20260509050930 58 142 0.0 0.9 0.00 0.00 0.00 82 1011.1
20260509050818 58 142 0.0 2.6 0.00 0.00 0.00 82 1011.2
20260509050725 58 142 0.0 2.6 0.00 0.00 0.00 82 1011.2
20260509050633 58 142 0.0 2.6 0.00 0.00 0.00 82 1011.1
20260509050608 58 142 0.0 2.6 0.00 0.00 0.00 82 1011.1
20260509050320 58 142 0.0 2.6 0.00 0.00 0.00 82 1011.2
20260509050228 58 142 0.9 2.6 0.00 0.00 0.00 82 1011.2
20260509050115 58 142 0.9 2.6 0.00 0.00 0.00 82 1011.1
20260509050042 58 142 0.9 2.6 0.00 0.00 0.00 82 1011.1
20260509045912 58 140 0.9 2.6 0.00 0.00 0.00 82 1011.0
20260509045818 58 132 1.7 2.6 0.00 0.00 0.00 82 1011.0
20260509045725 58 128 1.7 2.6 0.00 0.00 0.00 82 1011.0
20260509045613 58 140 1.7 2.6 0.00 0.00 0.00 82 1011.1
20260509045522 58 134 0.9 2.6 0.00 0.00 0.00 82 1011.1
20260509045412 58 148 0.0 1.7 0.00 0.00 0.00 82 1011.3
20260509045320 58 148 0.0 0.0 0.00 0.00 0.00 82 1011.3
20260509045228 58 148 0.0 0.0 0.00 0.00 0.00 82 1011.3
20260509045116 58 148 0.0 0.0 0.00 0.00 0.00 82 1011.3
20260509045051 58 148 0.0 0.0 0.00 0.00 0.00 82 1011.3
20260509044824 58 148 0.0 0.0 0.00 0.00 0.00 82 1011.4
20260509044711 58 148 0.0 0.0 0.00 0.00 0.00 81 1011.5
20260509044620 58 148 0.0 0.0 0.00 0.00 0.00 81 1011.4
20260509044528 58 148 0.0 0.0 0.00 0.00 0.00 81 1011.4
20260509044415 58 148 0.0 0.0 0.00 0.00 0.00 81 1011.4
20260509044326 58 148 0.0 0.0 0.00 0.00 0.00 81 1011.4
20260509044213 58 148 0.0 0.0 0.00 0.00 0.00 81 1011.5
20260509044121 58 148 0.0 0.0 0.00 0.00 0.00 81 1011.5
20260509044029 58 148 0.0 0.0 0.00 0.00 0.00 81 1011.5
20260509043915 58 148 0.0 0.0 0.00 0.00 0.00 81 1011.6
20260509043828 58 148 0.0 0.0 0.00 0.00 0.00 81 1011.6
20260509043715 58 148 0.0 0.0 0.00 0.00 0.00 81 1011.6
20260509043642 58 148 0.0 0.0 0.00 0.00 0.00 81 1011.6
20260509043552 58 148 0.0 0.0 0.00 0.00 0.00 81 1011.6
20260509043325 58 148 0.0 0.0 0.00 0.00 0.00 81 1011.7
20260509043217 58 148 0.0 0.0 0.00 0.00 0.00 81 1011.7
20260509043125 58 148 0.0 0.0 0.00 0.00 0.00 81 1011.7
20260509043013 59 148 0.0 0.0 0.00 0.00 0.00 81 1011.6
20260509042941 59 148 0.0 0.0 0.00 0.00 0.00 81 1011.5
20260509042826 59 148 0.0 0.0 0.00 0.00 0.00 81 1011.5
20260509042713 59 148 0.0 0.0 0.00 0.00 0.00 81 1011.6
20260509042625 59 148 0.0 0.0 0.00 0.00 0.00 81 1011.6
20260509042512 59 148 0.0 0.0 0.00 0.00 0.00 81 1011.5
20260509042420 59 148 0.0 0.0 0.00 0.00 0.00 81 1011.5
20260509042327 59 148 0.0 0.0 0.00 0.00 0.00 81 1011.5
20260509042214 59 148 0.0 0.0 0.00 0.00 0.00 81 1011.5
20260509042056 59 148 0.0 0.0 0.00 0.00 0.00 81 1011.5
20260509041831 59 148 0.0 0.0 0.00 0.00 0.00 81 1011.5
20260509041720 59 148 0.0 0.0 0.00 0.00 0.00 81 1011.6
20260509041611 59 148 0.0 0.9 0.00 0.00 0.00 81 1011.5
20260509041518 59 148 0.0 1.7 0.00 0.00 0.00 80 1011.5
20260509041445 59 148 0.0 1.7 0.00 0.00 0.00 80 1011.5
20260509041352 59 148 0.0 1.7 0.00 0.00 0.00 80 1011.5
20260509041217 59 148 0.0 1.7 0.00 0.00 0.00 80 1011.4
20260509041125 59 148 0.0 1.7 0.00 0.00 0.00 80 1011.4
20260509041033 59 148 0.0 1.7 0.00 0.00 0.00 80 1011.6
20260509040919 59 148 0.0 2.6 0.00 0.00 0.00 80 1011.6
20260509040850 59 148 0.0 3.5 0.00 0.00 0.00 80 1011.6
20260509040716 59 148 0.9 3.5 0.00 0.00 0.00 80 1011.7
20260509040623 59 148 0.9 3.5 0.00 0.00 0.00 80 1011.7
20260509040554 59 148 1.7 3.5 0.00 0.00 0.00 80 1011.6
20260509040312 59 148 1.7 3.5 0.00 0.00 0.00 80 1011.7
20260509040219 59 148 1.7 3.5 0.00 0.00 0.00 80 1011.7
20260509040127 59 148 0.9 3.5 0.00 0.00 0.00 80 1011.7
20260509040014 59 148 1.7 3.5 0.00 0.00 0.00 80 1011.6
20260509035923 59 146 1.7 3.5 0.00 0.00 0.00 80 1011.6
20260509035830 59 137 1.7 3.5 0.00 0.00 0.00 80 1011.7
20260509035721 59 145 1.7 3.5 0.00 0.00 0.00 80 1011.6
20260509035629 59 144 1.7 3.5 0.00 0.00 0.00 80 1011.6
20260509035517 59 133 2.6 3.5 0.00 0.00 0.00 80 1011.5
20260509035424 59 134 2.6 3.5 0.00 0.00 0.00 80 1011.5
20260509035312 59 130 2.6 3.5 0.00 0.00 0.00 80 1011.4
20260509035223 59 126 2.6 3.5 0.00 0.00 0.00 80 1011.4
20260509035130 59 128 2.6 2.6 0.00 0.00 0.00 80 1011.5
20260509035101 59 129 1.7 2.6 0.00 0.00 0.00 80 1011.5
20260509034834 59 132 0.9 2.6 0.00 0.00 0.00 80 1011.7
20260509034720 59 134 0.9 1.7 0.00 0.00 0.00 80 1011.6
20260509034612 59 171 0.0 0.9 0.00 0.00 0.00 79 1011.8
20260509034519 59 171 0.0 0.9 0.00 0.00 0.00 79 1011.8
20260509034427 59 171 0.0 0.0 0.00 0.00 0.00 79 1011.8
20260509034315 59 171 0.0 0.0 0.00 0.00 0.00 79 1011.8
20260509034221 59 171 0.0 0.0 0.00 0.00 0.00 79 1011.8
20260509034148 59 171 0.0 0.0 0.00 0.00 0.00 79 1011.8
20260509034020 59 171 0.0 0.0 0.00 0.00 0.00 79 1011.8
20260509033946 59 171 0.0 0.0 0.00 0.00 0.00 79 1011.8
20260509033813 59 171 0.0 0.9 0.00 0.00 0.00 79 1011.8
20260509033720 59 171 0.0 0.9 0.00 0.00 0.00 79 1011.8
20260509033628 59 171 0.0 0.9 0.00 0.00 0.00 79 1011.8
20260509033601 59 171 0.0 0.9 0.00 0.00 0.00 78 1011.7
20260509033315 60 171 0.0 0.9 0.00 0.00 0.00 78 1011.9
20260509033223 60 171 0.0 0.9 0.00 0.00 0.00 78 1011.9
20260509033130 60 171 0.0 0.9 0.00 0.00 0.00 78 1011.9
20260509033017 60 171 0.0 0.9 0.00 0.00 0.00 78 1011.9
20260509032929 60 171 0.0 1.7 0.00 0.00 0.00 78 1011.9
20260509032816 60 171 0.0 2.6 0.00 0.00 0.00 77 1011.9
20260509032722 60 171 0.0 2.6 0.00 0.00 0.00 77 1011.9
20260509032629 60 171 0.0 2.6 0.00 0.00 0.00 77 1011.8
20260509032518 60 171 0.0 2.6 0.00 0.00 0.00 77 1011.9
20260509032445 60 171 0.0 2.6 0.00 0.00 0.00 77 1011.9
20260509032315 60 171 0.0 2.6 0.00 0.00 0.00 77 1011.9
20260509032221 60 171 0.9 2.6 0.00 0.00 0.00 77 1011.9
20260509032128 60 171 0.9 2.6 0.00 0.00 0.00 77 1011.9
20260509032057 60 171 0.9 2.6 0.00 0.00 0.00 77 1011.9
20260509031815 60 182 0.9 2.6 0.00 0.00 0.00 77 1012.0
20260509031723 60 182 0.9 2.6 0.00 0.00 0.00 77 1012.0
20260509031630 60 182 0.9 2.6 0.00 0.00 0.00 77 1012.1
20260509031518 60 167 1.7 2.6 0.00 0.00 0.00 76 1012.1
20260509031426 60 184 1.7 2.6 0.00 0.00 0.00 76 1012.1
20260509031333 60 187 0.9 1.7 0.00 0.00 0.00 76 1012.0
20260509031222 60 189 0.9 2.6 0.00 0.00 0.00 76 1012.0
20260509031129 60 194 0.9 2.6 0.00 0.00 0.00 76 1012.1
20260509031016 60 158 0.9 2.6 0.00 0.00 0.00 76 1012.1
20260509030923 60 187 0.9 2.6 0.00 0.00 0.00 76 1012.1
20260509030831 60 187 0.0 2.6 0.00 0.00 0.00 76 1012.1
20260509030717 61 187 0.9 2.6 0.00 0.00 0.00 76 1012.2
20260509030630 61 187 0.9 2.6 0.00 0.00 0.00 76 1012.2
20260509030600 61 187 1.7 2.6 0.00 0.00 0.00 76 1012.1
20260509030314 61 186 0.9 2.6 0.00 0.00 0.00 76 1012.2
20260509030221 61 188 0.9 2.6 0.00 0.00 0.00 76 1012.2
20260509030113 61 184 0.9 2.6 0.00 0.00 0.00 75 1012.3
20260509030020 61 195 0.9 2.6 0.00 0.00 0.00 75 1012.3
20260509025928 61 195 0.9 2.6 0.00 0.00 0.00 75 1012.3
20260509025814 61 195 0.9 2.6 0.00 0.00 0.00 75 1012.2
20260509025722 61 195 1.7 2.6 0.00 0.00 0.00 75 1012.2
20260509025613 61 195 1.7 2.6 0.00 0.00 0.00 75 1012.2
20260509025520 61 186 0.9 2.6 0.00 0.00 0.00 75 1012.2
20260509025426 61 187 0.0 2.6 0.00 0.00 0.00 75 1012.2
20260509025333 61 150 0.0 2.6 0.00 0.00 0.00 75 1012.0
20260509025220 61 150 0.0 2.6 0.00 0.00 0.00 74 1012.0
20260509025128 61 150 0.9 2.6 0.00 0.00 0.00 74 1012.0
20260509025102 61 150 0.9 2.6 0.00 0.00 0.00 74 1011.9
20260509024815 61 150 0.9 2.6 0.00 0.00 0.00 74 1012.0
20260509024722 61 147 1.7 2.6 0.00 0.00 0.00 74 1012.0
20260509024649 61 147 1.7 2.6 0.00 0.00 0.00 74 1012.0
20260509024517 61 143 1.7 2.6 0.00 0.00 0.00 74 1011.9
20260509024423 61 150 1.7 2.6 0.00 0.00 0.00 74 1011.9
20260509024314 62 150 1.7 2.6 0.00 0.00 0.00 74 1012.0
20260509024222 62 142 1.7 2.6 0.00 0.00 0.00 74 1012.0
20260509024130 62 124 0.9 2.6 0.00 0.00 0.00 74 1012.0
20260509024018 62 136 0.9 3.5 0.00 0.00 0.00 74 1012.0
20260509023926 62 150 0.9 3.5 0.00 0.00 0.00 74 1012.0
20260509023818 62 150 0.9 3.5 0.00 0.00 0.00 74 1012.0
20260509023746 62 150 0.9 3.5 0.00 0.00 0.00 74 1012.0
20260509023632 62 159 0.9 3.5 0.00 0.00 0.00 74 1011.9
20260509023601 62 196 0.9 3.5 0.00 0.00 0.00 74 1012.0
20260509023334 62 167 0.9 4.3 0.00 0.00 0.00 73 1012.0
20260509023224 62 168 0.9 4.3 0.00 0.00 0.00 73 1012.0
20260509023112 62 191 0.9 4.3 0.00 0.00 0.00 73 1012.1
20260509023019 62 184 1.7 4.3 0.00 0.00 0.00 73 1012.2
20260509022925 62 148 1.7 5.2 0.00 0.00 0.00 73 1012.2
20260509022814 62 200 1.7 5.2 0.00 0.00 0.00 73 1012.1
20260509022722 62 201 1.7 5.2 0.00 0.00 0.00 73 1012.1
20260509022614 62 190 2.6 5.2 0.00 0.00 0.00 73 1012.2
20260509022522 62 209 2.6 5.2 0.00 0.00 0.00 73 1012.2
20260509022429 62 207 2.6 6.1 0.00 0.00 0.00 73 1012.1
20260509022317 62 183 2.6 6.1 0.00 0.00 0.00 73 1012.1
20260509022245 62 201 3.5 6.1 0.00 0.00 0.00 73 1012.1
20260509022116 62 188 3.5 6.1 0.00 0.00 0.00 73 1012.0
20260509022047 62 194 2.6 7.8 0.00 0.00 0.00 73 1012.0
20260509021820 62 176 2.6 7.8 0.00 0.00 0.00 73 1012.1
20260509021727 62 159 2.6 7.8 0.00 0.00 0.00 73 1012.1
20260509021615 62 151 4.3 7.8 0.00 0.00 0.00 73 1012.1
20260509021525 62 205 4.3 7.8 0.00 0.00 0.00 73 1012.1
20260509021433 63 190 3.5 7.8 0.00 0.00 0.00 72 1012.1
20260509021320 62 168 3.5 7.8 0.00 0.00 0.00 72 1012.1
20260509021227 63 211 3.5 7.8 0.00 0.00 0.00 72 1012.1
20260509021115 63 187 4.3 7.8 0.00 0.00 0.00 72 1012.0
20260509021023 63 175 3.5 7.8 0.00 0.00 0.00 72 1012.0
20260509020914 63 183 2.6 6.1 0.00 0.00 0.00 72 1012.1
20260509020822 63 214 2.6 6.1 0.00 0.00 0.00 72 1012.1
20260509020731 63 196 3.5 6.1 0.00 0.00 0.00 72 1012.1
20260509020637 63 131 3.5 6.1 0.00 0.00 0.00 72 1012.0
20260509020611 63 191 3.5 6.1 0.00 0.00 0.00 72 1011.9
20260509020325 63 178 3.5 6.1 0.00 0.00 0.00 72 1012.0
20260509020213 63 190 2.6 6.1 0.00 0.00 0.00 72 1012.0
20260509020120 63 216 1.7 5.2 0.00 0.00 0.00 72 1011.9
20260509020028 63 144 1.7 5.2 0.00 0.00 0.00 72 1011.9
20260509015915 63 192 1.7 5.2 0.00 0.00 0.00 72 1011.9
20260509015827 63 198 1.7 5.2 0.00 0.00 0.00 72 1011.9
20260509015715 63 195 1.7 5.2 0.00 0.00 0.00 72 1011.9
20260509015623 63 186 2.6 5.2 0.00 0.00 0.00 72 1011.9
20260509015531 63 145 2.6 5.2 0.00 0.00 0.00 72 1011.9
20260509015419 63 196 3.5 5.2 0.00 0.00 0.00 71 1011.9
20260509015330 63 198 3.5 5.2 0.00 0.00 0.00 71 1011.9
20260509015237 63 193 3.5 5.2 0.00 0.00 0.00 71 1012.0
20260509015123 63 197 2.6 5.2 0.00 0.00 0.00 71 1012.0
20260509015053 63 173 1.7 5.2 0.00 0.00 0.00 71 1011.9
20260509014827 63 198 1.7 5.2 0.00 0.00 0.00 71 1012.0
20260509014739 63 191 2.6 5.2 0.00 0.00 0.00 71 1011.8
20260509014626 63 234 2.6 5.2 0.00 0.00 0.00 71 1011.8
20260509014512 64 197 2.6 6.1 0.00 0.00 0.00 70 1012.0
20260509014420 64 196 2.6 6.1 0.00 0.00 0.00 70 1011.9
20260509014328 64 197 3.5 6.1 0.00 0.00 0.00 70 1011.9
20260509014215 64 184 2.6 6.1 0.00 0.00 0.00 70 1011.9
20260509014127 64 195 2.6 6.1 0.00 0.00 0.00 70 1011.9
20260509014015 64 199 3.5 6.1 0.00 0.00 0.00 70 1012.0
20260509013923 64 190 3.5 6.1 0.00 0.00 0.00 70 1012.0
20260509013830 64 168 4.3 6.1 0.00 0.00 0.00 70 1011.8
20260509013719 64 178 3.5 6.1 0.00 0.00 0.00 70 1011.8
20260509013630 64 206 2.6 6.1 0.00 0.00 0.00 70 1011.8
20260509013600 64 180 2.6 6.1 0.00 0.00 0.00 70 1011.8
20260509013314 64 200 3.5 6.1 0.00 0.00 0.00 69 1011.8
20260509013222 64 186 3.5 6.1 0.00 0.00 0.00 70 1011.8
20260509013113 64 190 2.6 5.2 0.00 0.00 0.00 69 1011.8
20260509013021 64 200 2.6 6.1 0.00 0.00 0.00 69 1011.8
20260509012927 64 181 2.6 6.1 0.00 0.00 0.00 69 1011.8
20260509012834 64 188 3.5 6.1 0.00 0.00 0.00 69 1011.8
20260509012720 64 205 3.5 6.1 0.00 0.00 0.00 69 1011.8
20260509012628 64 173 2.6 6.1 0.00 0.00 0.00 69 1011.8
20260509012520 64 182 2.6 6.1 0.00 0.00 0.00 69 1011.8
20260509012447 64 178 2.6 6.1 0.00 0.00 0.00 69 1011.8
20260509012311 64 195 3.5 6.1 0.00 0.00 0.00 69 1011.8
20260509012218 64 216 3.5 6.1 0.00 0.00 0.00 69 1011.7
20260509012146 64 176 4.3 6.1 0.00 0.00 0.00 69 1011.7
20260509012116 64 178 3.5 6.1 0.00 0.00 0.00 69 1011.7
20260509011814 65 192 2.6 6.1 0.00 0.00 0.00 69 1011.8
20260509011722 65 188 2.6 6.1 0.00 0.00 0.00 68 1011.8
20260509011630 65 184 3.5 6.1 0.00 0.00 0.00 68 1011.8
20260509011539 65 191 4.3 6.1 0.00 0.00 0.00 68 1011.8
20260509011425 65 207 4.3 6.1 0.00 0.00 0.00 68 1011.8
20260509011317 65 178 3.5 8.7 0.00 0.00 0.00 68 1011.7
20260509011225 65 238 2.6 8.7 0.00 0.00 0.00 68 1011.7
20260509011112 65 205 2.6 8.7 0.00 0.00 0.00 68 1011.7
20260509011039 65 146 2.6 10.4 0.00 0.00 0.00 68 1011.8
20260509010926 65 198 3.5 10.4 0.00 0.00 0.00 68 1011.8
20260509010814 65 174 4.3 10.4 0.00 0.00 0.00 68 1011.6
20260509010741 65 186 4.3 10.4 0.00 0.00 0.00 67 1011.6
20260509010630 65 211 5.2 10.4 0.00 0.00 0.00 68 1011.6
20260509010600 65 196 5.2 10.4 0.00 0.00 0.00 67 1011.7
20260509010333 65 186 5.2 10.4 0.00 0.00 0.00 67 1011.6
20260509010241 65 180 5.2 10.4 0.00 0.00 0.00 67 1011.7
20260509010127 65 205 5.2 10.4 0.00 0.00 0.00 67 1011.7
20260509010017 65 175 5.2 9.6 0.00 0.00 0.00 67 1011.6
20260509005924 65 217 6.1 9.6 0.00 0.00 0.00 67 1011.6
20260509005831 65 171 7.0 9.6 0.00 0.00 0.00 67 1011.6
20260509005719 65 205 6.1 9.6 0.00 0.00 0.00 67 1011.6
20260509005648 65 184 6.1 9.6 0.00 0.00 0.00 66 1011.6
20260509005514 65 186 4.3 9.6 0.00 0.00 0.00 67 1011.5
20260509005426 65 170 4.3 9.6 0.00 0.00 0.00 66 1011.5
20260509005314 65 194 4.3 9.6 0.00 0.00 0.00 66 1011.5
20260509005221 65 177 5.2 9.6 0.00 0.00 0.00 66 1011.5
20260509005129 66 184 5.2 9.6 0.00 0.00 0.00 66 1011.6
20260509005059 65 178 5.2 9.6 0.00 0.00 0.00 66 1011.6
20260509004817 66 239 5.2 10.4 0.00 0.00 0.00 66 1011.6
20260509004745 66 192 5.2 10.4 0.00 0.00 0.00 66 1011.6
20260509004630 66 176 5.2 10.4 0.00 0.00 0.00 66 1011.7
20260509004538 66 194 6.1 10.4 0.00 0.00 0.00 66 1011.8
20260509004425 66 190 7.0 10.4 0.00 0.00 0.00 66 1011.8
20260509004312 66 177 7.0 10.4 0.00 0.00 0.00 66 1011.7
20260509004244 66 207 7.0 10.4 0.00 0.00 0.00 66 1011.7
20260509004129 66 199 7.0 10.4 0.00 0.00 0.00 66 1011.6
20260509004016 66 196 7.0 10.4 0.00 0.00 0.00 66 1011.6
20260509003924 66 187 6.1 10.4 0.00 0.00 0.00 66 1011.6
20260509003851 66 242 6.1 10.4 0.00 0.00 0.00 65 1011.4
20260509003738 66 185 6.1 10.4 0.00 0.00 0.00 65 1011.5
20260509003625 66 210 6.1 10.4 0.00 0.00 0.00 65 1011.5
20260509003600 66 173 6.1 8.7 0.00 0.00 0.00 65 1011.6
20260509003332 66 198 5.2 10.4 0.00 0.00 0.00 65 1011.6
20260509003239 66 197 4.3 10.4 0.00 0.00 0.00 65 1011.6
20260509003126 67 221 4.3 10.4 0.00 0.00 0.00 65 1011.6
20260509003012 67 198 4.3 10.4 0.00 0.00 0.00 65 1011.7
20260509002924 67 138 4.3 10.4 0.00 0.00 0.00 65 1011.7
20260509002852 67 190 4.3 10.4 0.00 0.00 0.00 65 1011.6
20260509002717 67 137 4.3 10.4 0.00 0.00 0.00 65 1011.6
20260509002625 67 195 5.2 10.4 0.00 0.00 0.00 65 1011.6
20260509002513 67 200 6.1 10.4 0.00 0.00 0.00 65 1011.5
20260509002440 67 183 5.2 9.6 0.00 0.00 0.00 65 1011.6
20260509002347 67 200 5.2 9.6 0.00 0.00 0.00 65 1011.6
20260509002218 67 180 4.3 9.6 0.00 0.00 0.00 64 1011.6
20260509002126 67 212 5.2 9.6 0.00 0.00 0.00 64 1011.6
20260509002056 67 186 5.2 9.6 0.00 0.00 0.00 64 1011.6
20260509001829 67 227 6.1 9.6 0.00 0.00 0.00 64 1011.8
20260509001741 67 209 7.0 11.3 0.00 0.00 0.00 64 1011.8
20260509001628 67 188 6.1 11.3 0.00 0.00 0.00 64 1011.8
20260509001515 67 184 6.1 11.3 0.00 0.00 0.00 64 1011.8
20260509001423 67 186 5.2 11.3 0.00 0.00 0.00 64 1011.8
20260509001331 67 162 6.1 11.3 0.00 0.00 0.00 63 1011.9
20260509001219 67 190 5.2 11.3 0.00 0.00 0.00 63 1011.8
20260509001130 67 177 7.0 11.3 0.00 0.00 0.00 63 1011.8
20260509001016 67 163 7.0 11.3 0.00 0.00 0.00 63 1011.8
20260509000924 67 160 7.0 11.3 0.00 0.00 0.00 63 1011.8
20260509000831 67 156 6.1 11.3 0.00 0.00 0.00 63 1011.7
20260509000717 67 167 5.2 13.9 0.00 0.00 0.00 63 1011.7
20260509000643 67 219 6.1 13.9 0.00 0.00 0.00 63 1011.7
20260509000617 68 196 6.1 13.9 0.00 0.00 0.00 62 1011.8
20260509000330 68 194 7.8 13.9 0.00 0.00 0.00 62 1011.8
20260509000219 68 195 8.7 13.9 0.00 0.00 0.00 62 1011.7
20260509000123 68 206 7.8 13.9 0.00 0.00 0.00 61 1011.7
20260509000015 68 196 7.0 13.9 0.00 0.00 0.00 61 1011.7
20260508235923 68 184 6.1 13.0 0.00 0.00 0.00 60 1011.7
20260508235829 68 183 5.2 12.2 0.00 0.00 0.00 60 1011.7
20260508235716 68 189 6.1 10.4 0.00 0.00 0.00 60 1011.7
20260508235623 68 175 5.2 10.4 0.00 0.00 0.00 60 1011.7
20260508235515 68 198 5.2 10.4 0.00 0.00 0.00 60 1011.7
20260508235421 68 188 5.2 10.4 0.00 0.00 0.00 59 1011.7
20260508235329 68 171 5.2 10.4 0.00 0.00 0.00 59 1011.7
20260508235218 68 153 6.1 10.4 0.00 0.00 0.00 59 1011.7
20260508235125 68 184 7.0 10.4 0.00 0.00 0.00 59 1011.7
20260508235059 68 192 7.0 10.4 0.00 0.00 0.00 59 1011.7
20260508234813 68 174 7.0 10.4 0.00 0.00 0.00 58 1011.6
20260508234721 68 181 7.0 10.4 0.00 0.00 0.00 59 1011.6
20260508234628 68 202 7.0 10.4 0.00 0.00 0.00 58 1011.6
20260508234515 68 156 7.0 10.4 0.00 0.00 0.00 58 1011.6
20260508234427 68 163 7.0 12.2 0.00 0.00 0.00 58 1011.6
20260508234316 69 180 6.1 12.2 0.00 0.00 0.00 58 1011.6
20260508234222 69 175 5.2 12.2 0.00 0.00 0.00 58 1011.6
20260508234111 69 216 5.2 12.2 0.00 0.00 0.00 59 1011.6
20260508234018 69 171 6.1 12.2 0.00 0.00 0.00 58 1011.8
20260508233946 69 188 6.1 12.2 0.00 0.00 0.00 58 1011.8
20260508233837 69 184 6.1 12.2 0.00 0.00 0.00 58 1011.8
20260508233723 69 192 7.0 12.2 0.00 0.00 0.00 58 1011.8
20260508233631 69 180 7.8 12.2 0.00 0.00 0.00 57 1011.8
20260508233601 69 184 7.0 12.2 0.00 0.00 0.00 58 1011.8
20260508233312 69 192 7.0 12.2 0.00 0.00 0.00 57 1011.9
20260508233225 69 202 7.0 12.2 0.00 0.00 0.00 58 1011.9
20260508233112 69 210 7.8 12.2 0.00 0.00 0.00 57 1011.8
20260508233020 69 211 7.0 10.4 0.00 0.00 0.00 57 1011.9
20260508232928 69 167 7.0 10.4 0.00 0.00 0.00 57 1011.9
20260508232836 69 168 6.1 11.3 0.00 0.00 0.00 56 1011.8
20260508232721 69 185 5.2 8.7 0.00 0.00 0.00 56 1011.8
20260508232613 69 170 4.3 8.7 0.00 0.00 0.00 56 1011.8
20260508232522 69 193 4.3 8.7 0.00 0.00 0.00 56 1011.8
20260508232429 69 197 5.2 8.7 0.00 0.00 0.00 56 1011.8
20260508232316 69 164 4.3 9.6 0.00 0.00 0.00 55 1011.9
20260508232223 69 179 4.3 9.6 0.00 0.00 0.00 55 1011.9
20260508232150 69 138 5.2 9.6 0.00 0.00 0.00 55 1011.8
20260508232124 69 207 5.2 9.6 0.00 0.00 0.00 55 1011.8
20260508231818 69 212 5.2 10.4 0.00 0.00 0.00 54 1011.8
20260508231743 69 200 6.1 10.4 0.00 0.00 0.00 54 1011.8
20260508231629 69 210 7.0 10.4 0.00 0.00 0.00 54 1011.8
20260508231520 70 173 7.0 10.4 0.00 0.00 0.00 54 1011.7
20260508231427 70 194 6.1 10.4 0.00 0.00 0.00 54 1011.7
20260508231314 70 200 6.1 10.4 0.00 0.00 0.00 53 1011.7
20260508231221 70 188 5.2 10.4 0.00 0.00 0.00 53 1011.7
20260508231128 70 205 5.2 10.4 0.00 0.00 0.00 53 1011.7
20260508231016 70 191 6.1 13.9 0.00 0.00 0.00 52 1011.8
20260508230927 70 184 7.0 13.9 0.00 0.00 0.00 52 1011.8
20260508230834 70 201 7.8 13.9 0.00 0.00 0.00 52 1011.8
20260508230722 70 202 7.0 13.9 0.00 0.00 0.00 52 1011.8
20260508230629 71 209 7.8 13.9 0.00 0.00 0.00 51 1011.7
20260508230600 71 167 7.0 13.9 0.00 0.00 0.00 51 1011.8
20260508230318 71 199 6.1 13.9 0.00 0.00 0.00 51 1011.7
20260508230245 71 210 5.2 13.9 0.00 0.00 0.00 51 1011.7
20260508230111 71 221 7.0 13.9 0.00 0.00 0.00 51 1011.8
20260508230019 71 202 7.8 13.9 0.00 0.00 0.00 51 1011.8
20260508225925 71 170 7.0 13.9 0.00 0.00 0.00 51 1011.8
20260508225817 71 205 7.8 13.0 0.00 0.00 0.00 51 1011.9
20260508225724 71 178 7.0 13.0 0.00 0.00 0.00 51 1011.9
20260508225631 71 192 7.0 13.0 0.00 0.00 0.00 51 1011.9
20260508225539 71 103 6.1 9.6 0.00 0.00 0.00 51 1011.9
20260508225425 71 185 5.2 9.6 0.00 0.00 0.00 52 1011.9
20260508225312 71 183 5.2 8.7 0.00 0.00 0.00 51 1011.8
20260508225223 71 225 5.2 8.7 0.00 0.00 0.00 51 1011.8
20260508225150 71 224 6.1 8.7 0.00 0.00 0.00 51 1011.8
20260508225121 71 200 6.1 8.7 0.00 0.00 0.00 50 1011.9
20260508224833 71 203 6.1 10.4 0.00 0.00 0.00 50 1011.9
20260508224718 72 176 7.0 10.4 0.00 0.00 0.00 50 1011.9
20260508224645 72 177 7.0 10.4 0.00 0.00 0.00 50 1011.9
20260508224516 72 194 7.0 10.4 0.00 0.00 0.00 50 1012.0
20260508224423 72 174 6.1 11.3 0.00 0.00 0.00 50 1012.0
20260508224330 72 190 5.2 11.3 0.00 0.00 0.00 50 1012.0
20260508224219 72 200 6.1 11.3 0.00 0.00 0.00 49 1012.0
20260508224126 72 196 6.1 11.3 0.00 0.00 0.00 49 1012.0
20260508224018 72 257 7.0 11.3 0.00 0.00 0.00 50 1012.0
20260508223925 72 186 7.0 11.3 0.00 0.00 0.00 51 1012.0
20260508223834 72 180 7.8 11.3 0.00 0.00 0.00 51 1012.0
20260508223722 72 167 7.8 11.3 0.00 0.00 0.00 51 1012.0
20260508223648 72 186 7.0 11.3 0.00 0.00 0.00 50 1012.0
20260508223558 72 186 7.0 13.0 0.00 0.00 0.00 50 1012.1
20260508223312 72 181 6.1 9.6 0.00 0.00 0.00 51 1012.0
20260508223220 72 172 5.2 9.6 0.00 0.00 0.00 51 1012.0
20260508223127 72 184 5.2 9.6 0.00 0.00 0.00 51 1012.0
20260508223014 72 217 5.2 10.4 0.00 0.00 0.00 51 1012.0
20260508222941 72 202 6.1 10.4 0.00 0.00 0.00 52 1012.0
20260508222812 72 221 7.0 10.4 0.00 0.00 0.00 51 1012.0
20260508222720 72 212 7.0 10.4 0.00 0.00 0.00 51 1012.0
20260508222627 72 171 7.0 10.4 0.00 0.00 0.00 51 1012.0
20260508222513 72 213 6.1 10.4 0.00 0.00 0.00 52 1012.0
20260508222421 72 228 5.2 10.4 0.00 0.00 0.00 52 1012.1
20260508222328 72 211 6.1 10.4 0.00 0.00 0.00 52 1012.1
20260508222218 72 213 7.0 10.4 0.00 0.00 0.00 52 1012.1
20260508222145 72 212 7.0 10.4 0.00 0.00 0.00 51 1012.1
20260508222115 72 185 7.0 10.4 0.00 0.00 0.00 52 1012.1
20260508221828 72 212 7.8 10.4 0.00 0.00 0.00 53 1011.9
20260508221718 72 188 7.0 10.4 0.00 0.00 0.00 52 1012.0
20260508221625 72 202 6.1 12.2 0.00 0.00 0.00 52 1012.0
20260508221534 72 205 7.0 12.2 0.00 0.00 0.00 51 1012.0
20260508221421 72 180 7.0 12.2 0.00 0.00 0.00 52 1012.0
20260508221348 72 207 7.0 12.2 0.00 0.00 0.00 52 1012.1
20260508221215 72 178 6.1 12.2 0.00 0.00 0.00 51 1012.0
20260508221122 72 189 6.1 12.2 0.00 0.00 0.00 51 1012.0
20260508221033 72 225 7.0 12.2 0.00 0.00 0.00 51 1012.2
20260508220919 72 223 7.8 12.2 0.00 0.00 0.00 51 1012.2
20260508220847 72 214 7.0 12.2 0.00 0.00 0.00 51 1012.2
20260508220714 72 194 6.1 12.2 0.00 0.00 0.00 51 1012.2
20260508220623 72 226 5.2 12.2 0.00 0.00 0.00 52 1012.2
20260508220557 72 224 6.1 12.2 0.00 0.00 0.00 52 1012.2
20260508220350 72 180 7.0 12.2 0.00 0.00 0.00 52 1012.1
20260508220215 72 167 8.7 12.2 0.00 0.00 0.00 52 1012.1
20260508220121 71 205 7.0 13.0 0.00 0.00 0.00 52 1012.1
20260508220029 71 191 7.0 14.8 0.00 0.00 0.00 52 1012.1
20260508215936 71 192 5.2 13.0 0.00 0.00 0.00 54 1012.2
20260508215823 71 195 6.1 13.0 0.00 0.00 0.00 52 1012.2
20260508215734 71 186 7.0 13.0 0.00 0.00 0.00 51 1012.1
20260508215621 71 202 7.8 13.0 0.00 0.00 0.00 51 1012.1
20260508215529 71 182 7.8 13.0 0.00 0.00 0.00 51 1012.1
20260508215417 71 169 7.8 12.2 0.00 0.00 0.00 51 1012.1
20260508215325 72 199 8.7 13.9 0.00 0.00 0.00 51 1012.1
20260508215216 72 191 7.8 12.2 0.00 0.00 0.00 51 1012.1
20260508215125 72 207 7.0 12.2 0.00 0.00 0.00 52 1012.1
20260508215055 72 194 7.0 11.3 0.00 0.00 0.00 52 1012.2
20260508214829 72 299 7.0 12.2 0.00 0.00 0.00 52 1012.1
20260508214716 72 170 6.1 12.2 0.00 0.00 0.00 52 1012.1
20260508214627 72 188 5.2 12.2 0.00 0.00 0.00 52 1012.1
20260508214514 72 190 4.3 12.2 0.00 0.00 0.00 52 1012.2
20260508214422 72 183 5.2 12.2 0.00 0.00 0.00 52 1012.2
20260508214329 72 147 6.1 12.2 0.00 0.00 0.00 51 1012.1
20260508214215 72 184 7.0 12.2 0.00 0.00 0.00 51 1012.1
20260508214127 72 191 6.1 12.2 0.00 0.00 0.00 51 1012.1
20260508214034 72 197 5.2 10.4 0.00 0.00 0.00 52 1012.1
20260508213941 72 196 5.2 9.6 0.00 0.00 0.00 51 1012.1
20260508213826 72 163 6.1 9.6 0.00 0.00 0.00 51 1012.1
20260508213714 72 182 4.3 10.4 0.00 0.00 0.00 52 1012.1
20260508213621 72 182 4.3 6.1 0.00 0.00 0.00 52 1012.1
20260508213555 72 182 3.5 7.0 0.00 0.00 0.00 52 1012.1
20260508213329 72 236 4.3 8.7 0.00 0.00 0.00 54 1012.1
20260508213236 72 196 4.3 8.7 0.00 0.00 0.00 52 1012.1
20260508213123 72 133 4.3 8.7 0.00 0.00 0.00 53 1012.1
20260508213030 72 160 3.5 8.7 0.00 0.00 0.00 52 1012.0
20260508212921 72 202 2.6 8.7 0.00 0.00 0.00 51 1012.0
20260508212848 72 198 3.5 8.7 0.00 0.00 0.00 52 1012.0
20260508212734 72 161 4.3 8.7 0.00 0.00 0.00 52 1011.9
20260508212619 72 191 4.3 8.7 0.00 0.00 0.00 52 1011.9
20260508212525 72 139 4.3 8.7 0.00 0.00 0.00 52 1011.9
20260508212413 72 186 5.2 10.4 0.00 0.00 0.00 51 1011.9
20260508212320 72 153 5.2 10.4 0.00 0.00 0.00 51 1011.9
20260508212212 72 115 4.3 10.4 0.00 0.00 0.00 51 1012.0
20260508212120 72 126 2.6 9.6 0.00 0.00 0.00 51 1012.0
20260508212051 72 168 3.5 9.6 0.00 0.00 0.00 51 1012.0
20260508211825 72 94 4.3 9.6 0.00 0.00 0.00 51 1011.9
20260508211717 72 195 7.0 9.6 0.00 0.00 0.00 50 1012.1
20260508211625 73 140 7.0 9.6 0.00 0.00 0.00 51 1012.1
20260508211512 73 94 6.1 9.6 0.00 0.00 0.00 50 1012.2
20260508211420 73 130 5.2 10.4 0.00 0.00 0.00 50 1012.2
20260508211326 73 121 4.3 9.6 0.00 0.00 0.00 50 1012.2
20260508211219 73 151 4.3 10.4 0.00 0.00 0.00 49 1012.1
20260508211127 73 157 3.5 10.4 0.00 0.00 0.00 50 1012.1
20260508211015 73 238 4.3 10.4 0.00 0.00 0.00 52 1012.1
20260508210922 72 200 5.2 10.4 0.00 0.00 0.00 50 1012.1
20260508210828 73 200 6.1 10.4 0.00 0.00 0.00 49 1012.1
20260508210716 73 185 6.1 10.4 0.00 0.00 0.00 49 1012.2
20260508210627 73 215 5.2 10.4 0.00 0.00 0.00 49 1012.2
20260508210557 73 209 4.3 10.4 0.00 0.00 0.00 50 1012.1
20260508210330 73 171 4.3 7.8 0.00 0.00 0.00 49 1012.1
20260508210218 73 150 4.3 7.8 0.00 0.00 0.00 49 1012.1
20260508210130 73 193 4.3 7.8 0.00 0.00 0.00 50 1012.1
20260508210037 73 192 5.2 7.8 0.00 0.00 0.00 49 1012.0
20260508205924 73 159 5.2 7.8 0.00 0.00 0.00 48 1012.0
20260508205812 73 192 3.5 7.8 0.00 0.00 0.00 50 1012.0
20260508205719 73 160 3.5 7.8 0.00 0.00 0.00 49 1012.0
20260508205626 72 192 3.5 9.6 0.00 0.00 0.00 49 1012.0
20260508205518 72 200 4.3 9.6 0.00 0.00 0.00 48 1012.1